Wetterdaten: Freitag, 18.09.2015
Datum Zeit Temp. Aussen Temp. o. S. +5cm Feuchte Auss BlattFeu 1 Luftdruck Regen Sonnenschein Regendauer Solar Windben Empfang
18.09.2015 00:00 11,6 C 11,1 C 10,0 C 96 % 15 lf 1009,5 hPa 0,0 l/m 0 min 0 min 0 W/m 10,5 km/h (2 Bft) 89,36 %
18.09.2015 00:02 11,6 C 11,1 C 10,0 C 96 % 15 lf 1009,5 hPa 0,0 l/m 0 min 0 min 0 W/m 10,5 km/h (2 Bft) 100,00 %
18.09.2015 00:05 11,6 C 11,1 C 10,0 C 96 % 15 lf 1009,5 hPa 0,0 l/m 0 min 0 min 0 W/m 10,5 km/h (2 Bft) 94,37 %
18.09.2015 00:06 11,6 C 11,1 C 10,0 C 96 % 15 lf 1009,5 hPa 0,0 l/m 0 min 0 min 0 W/m 10,5 km/h (2 Bft) 100,00 %
18.09.2015 00:08 11,6 C 11,1 C 10,0 C 96 % 15 lf 1009,5 hPa 0,0 l/m 0 min 0 min 0 W/m 12,6 km/h (3 Bft) 97,87 %
18.09.2015 00:10 11,6 C 11,1 C 10,0 C 96 % 15 lf 1009,6 hPa 0,0 l/m 0 min 0 min 0 W/m 10,5 km/h (2 Bft) 97,87 %
18.09.2015 00:15 11,5 C 11,1 C 10,0 C 96 % 15 lf 1009,7 hPa 0,0 l/m 0 min 0 min 0 W/m 10,5 km/h (2 Bft) 96,00 %
18.09.2015 00:16 11,5 C 11,1 C 10,0 C 96 % 15 lf 1009,7 hPa 0,0 l/m 0 min 0 min 0 W/m 12,6 km/h (3 Bft) 100,00 %
18.09.2015 00:18 11,5 C 11,1 C 10,0 C 96 % 15 lf 1009,7 hPa 0,0 l/m 0 min 0 min 0 W/m 12,6 km/h (3 Bft) 93,48 %
18.09.2015 00:20 11,5 C 11,1 C 10,0 C 96 % 15 lf 1009,8 hPa 0,0 l/m 0 min 0 min 0 W/m 10,5 km/h (2 Bft) 95,74 %
18.09.2015 00:22 11,5 C 11,1 C 10,0 C 96 % 15 lf 1009,8 hPa 0,0 l/m 0 min 0 min 0 W/m 12,6 km/h (3 Bft) 97,87 %
18.09.2015 00:24 11,4 C 11,1 C 10,0 C 96 % 15 lf 1009,8 hPa 0,0 l/m 0 min 0 min 0 W/m 12,6 km/h (3 Bft) 95,74 %
18.09.2015 00:26 11,4 C 11,1 C 10,0 C 96 % 15 lf 1009,8 hPa 0,0 l/m 0 min 0 min 0 W/m 12,6 km/h (3 Bft) 97,87 %
18.09.2015 00:28 11,4 C 11,1 C 10,0 C 96 % 15 lf 1009,9 hPa 0,0 l/m 0 min 0 min 0 W/m 14,6 km/h (3 Bft) 93,62 %
18.09.2015 00:30 11,4 C 11,1 C 10,0 C 96 % 15 lf 1009,8 hPa 0,0 l/m 0 min 0 min 0 W/m 12,6 km/h (3 Bft) 95,65 %
18.09.2015 00:32 11,4 C 11,7 C 10,0 C 96 % 15 lf 1009,8 hPa 0,0 l/m 0 min 0 min 0 W/m 12,6 km/h (3 Bft) 97,87 %
18.09.2015 00:34 11,4 C 11,7 C 10,0 C 96 % 15 lf 1009,9 hPa 0,0 l/m 0 min 0 min 0 W/m 10,5 km/h (2 Bft) 97,87 %
18.09.2015 00:36 11,4 C 11,1 C 10,0 C 96 % 15 lf 1009,9 hPa 0,0 l/m 0 min 0 min 0 W/m 6,3 km/h (2 Bft) 95,74 %
18.09.2015 00:38 11,4 C 11,1 C 10,0 C 96 % 15 lf 1009,9 hPa 0,0 l/m 0 min 0 min 0 W/m 10,5 km/h (2 Bft) 87,23 %
18.09.2015 00:40 11,5 C 11,7 C 10,0 C 96 % 15 lf 1010,0 hPa 0,0 l/m 0 min 0 min 0 W/m 14,6 km/h (3 Bft) 97,87 %
18.09.2015 00:42 11,5 C 11,7 C 10,0 C 96 % 15 lf 1010,0 hPa 0,0 l/m 0 min 0 min 0 W/m 14,6 km/h (3 Bft) 97,83 %
18.09.2015 00:44 11,5 C 11,7 C 10,0 C 96 % 15 lf 1009,9 hPa 0,0 l/m 0 min 0 min 0 W/m 12,6 km/h (3 Bft) 97,87 %
18.09.2015 00:46 11,5 C 11,7 C 10,0 C 96 % 15 lf 1010,0 hPa 0,0 l/m 0 min 0 min 0 W/m 8,4 km/h (2 Bft) 93,62 %
18.09.2015 00:48 11,5 C 11,7 C 10,0 C 96 % 15 lf 1010,0 hPa 0,0 l/m 0 min 0 min 0 W/m 16,7 km/h (3 Bft) 95,74 %
18.09.2015 00:50 11,5 C 11,7 C 10,0 C 96 % 15 lf 1010,0 hPa 0,0 l/m 0 min 0 min 0 W/m 14,6 km/h (3 Bft) 97,87 %
18.09.2015 00:52 11,6 C 11,7 C 10,0 C 96 % 15 lf 1010,0 hPa 0,0 l/m 0 min 0 min 0 W/m 12,6 km/h (3 Bft) 95,74 %
18.09.2015 00:54 11,6 C 11,7 C 10,0 C 96 % 15 lf 1010,0 hPa 0,0 l/m 0 min 0 min 0 W/m 14,6 km/h (3 Bft) 93,48 %
18.09.2015 00:56 11,6 C 11,7 C 10,0 C 96 % 15 lf 1010,0 hPa 0,0 l/m 0 min 0 min 0 W/m 14,6 km/h (3 Bft) 100,00 %
18.09.2015 00:58 11,6 C 11,7 C 10,0 C 96 % 15 lf 1010,2 hPa 0,0 l/m 0 min 0 min 0 W/m 14,6 km/h (3 Bft) 97,87 %
18.09.2015 01:00 11,6 C 11,7 C 10,0 C 96 % 15 lf 1010,2 hPa 0,0 l/m 0 min 0 min 0 W/m 12,6 km/h (3 Bft) 97,87 %
18.09.2015 01:02 11,6 C 11,7 C 10,0 C 96 % 15 lf 1010,2 hPa 0,0 l/m 0 min 0 min 0 W/m 14,6 km/h (3 Bft) 97,87 %
18.09.2015 01:04 11,6 C 11,7 C 10,0 C 96 % 15 lf 1010,2 hPa 0,0 l/m 0 min 0 min 0 W/m 12,6 km/h (3 Bft) 97,83 %
18.09.2015 01:06 11,6 C 11,7 C 10,0 C 96 % 15 lf 1010,3 hPa 0,0 l/m 0 min 0 min 0 W/m 10,5 km/h (2 Bft) 97,87 %
18.09.2015 01:08 11,6 C 11,7 C 10,0 C 96 % 15 lf 1010,3 hPa 0,0 l/m 0 min 0 min 0 W/m 6,3 km/h (2 Bft) 91,49 %
18.09.2015 01:10 11,6 C 11,7 C 10,0 C 96 % 15 lf 1010,3 hPa 0,0 l/m 0 min 0 min 0 W/m 8,4 km/h (2 Bft) 95,74 %
18.09.2015 01:12 11,6 C 11,7 C 10,0 C 96 % 15 lf 1010,3 hPa 0,0 l/m 0 min 0 min 0 W/m 10,5 km/h (2 Bft) 97,87 %
18.09.2015 01:14 11,6 C 11,1 C 10,0 C 97 % 15 lf 1010,3 hPa 0,0 l/m 0 min 0 min 0 W/m 6,3 km/h (2 Bft) 97,87 %
18.09.2015 01:16 11,6 C 11,1 C 10,0 C 97 % 15 lf 1010,3 hPa 0,0 l/m 0 min 0 min 0 W/m 8,4 km/h (2 Bft) 95,65 %
18.09.2015 01:18 11,6 C 11,1 C 10,0 C 97 % 15 lf 1010,3 hPa 0,0 l/m 0 min 0 min 0 W/m 10,5 km/h (2 Bft) 95,74 %
18.09.2015 01:20 11,6 C 11,1 C 10,0 C 97 % 15 lf 1010,4 hPa 0,0 l/m 0 min 0 min 0 W/m 10,5 km/h (2 Bft) 97,87 %
18.09.2015 01:22 11,6 C 11,7 C 10,0 C 97 % 15 lf 1010,4 hPa 0,0 l/m 0 min 0 min 0 W/m 10,5 km/h (2 Bft) 95,74 %
18.09.2015 01:24 11,6 C 11,7 C 10,0 C 97 % 15 lf 1010,4 hPa 0,0 l/m 0 min 0 min 0 W/m 12,6 km/h (3 Bft) 97,87 %
18.09.2015 01:26 11,6 C 11,7 C 10,0 C 97 % 15 lf 1010,4 hPa 0,0 l/m 0 min 0 min 0 W/m 16,7 km/h (3 Bft) 97,87 %
18.09.2015 01:28 11,5 C 11,1 C 10,0 C 97 % 15 lf 1010,5 hPa 0,0 l/m 0 min 0 min 0 W/m 14,6 km/h (3 Bft) 93,48 %
18.09.2015 01:30 11,5 C 11,1 C 10,0 C 97 % 15 lf 1010,5 hPa 0,0 l/m 0 min 0 min 0 W/m 8,4 km/h (2 Bft) 95,74 %
18.09.2015 01:32 11,5 C 11,1 C 10,0 C 97 % 15 lf 1010,6 hPa 0,0 l/m 0 min 0 min 0 W/m 8,4 km/h (2 Bft) 93,62 %
18.09.2015 01:34 11,5 C 11,1 C 10,0 C 97 % 15 lf 1010,6 hPa 0,0 l/m 0 min 0 min 0 W/m 14,6 km/h (3 Bft) 93,62 %
18.09.2015 01:36 11,5 C 11,1 C 10,0 C 97 % 15 lf 1010,5 hPa 0,0 l/m 0 min 0 min 0 W/m 10,5 km/h (2 Bft) 93,62 %
18.09.2015 01:38 11,5 C 11,7 C 10,0 C 97 % 15 lf 1010,5 hPa 0,0 l/m 0 min 0 min 0 W/m 10,5 km/h (2 Bft) 93,62 %
18.09.2015 01:40 11,5 C 11,7 C 10,0 C 97 % 15 lf 1010,5 hPa 0,0 l/m 0 min 0 min 0 W/m 12,6 km/h (3 Bft) 93,48 %
18.09.2015 01:42 11,5 C 11,7 C 10,0 C 97 % 15 lf 1010,6 hPa 0,0 l/m 0 min 0 min 0 W/m 8,4 km/h (2 Bft) 95,74 %
18.09.2015 01:44 11,4 C 11,1 C 10,0 C 97 % 15 lf 1010,6 hPa 0,0 l/m 0 min 0 min 0 W/m 8,4 km/h (2 Bft) 93,62 %
18.09.2015 01:46 11,4 C 11,1 C 10,0 C 97 % 15 lf 1010,6 hPa 0,0 l/m 0 min 0 min 0 W/m 12,6 km/h (3 Bft) 95,74 %
18.09.2015 01:48 11,4 C 11,1 C 10,0 C 97 % 15 lf 1010,6 hPa 0,0 l/m 0 min 0 min 0 W/m 8,4 km/h (2 Bft) 100,00 %
18.09.2015 01:50 11,4 C 11,1 C 10,0 C 97 % 15 lf 1010,6 hPa 0,0 l/m 0 min 0 min 0 W/m 12,6 km/h (3 Bft) 97,83 %
18.09.2015 01:52 11,4 C 11,1 C 10,0 C 97 % 15 lf 1010,5 hPa 0,0 l/m 0 min 0 min 0 W/m 12,6 km/h (3 Bft) 95,74 %
18.09.2015 01:54 11,4 C 11,1 C 10,0 C 97 % 15 lf 1010,6 hPa 0,0 l/m 0 min 0 min 0 W/m 12,6 km/h (3 Bft) 97,87 %
18.09.2015 01:56 11,4 C 11,1 C 10,0 C 97 % 15 lf 1010,6 hPa 0,0 l/m 0 min 0 min 0 W/m 6,3 km/h (2 Bft) 95,74 %
18.09.2015 01:58 11,4 C 11,1 C 10,0 C 97 % 15 lf 1010,6 hPa 0,0 l/m 0 min 0 min 0 W/m 8,4 km/h (2 Bft) 97,87 %
18.09.2015 02:00 11,4 C 11,1 C 10,0 C 97 % 15 lf 1010,6 hPa 0,0 l/m 0 min 0 min 0 W/m 12,6 km/h (3 Bft) 97,87 %
18.09.2015 02:02 11,4 C 11,1 C 10,0 C 96 % 15 lf 1010,6 hPa 0,0 l/m 0 min 0 min 0 W/m 14,6 km/h (3 Bft) 97,83 %
18.09.2015 02:04 11,4 C 11,7 C 10,0 C 96 % 15 lf 1010,6 hPa 0,0 l/m 0 min 0 min 0 W/m 12,6 km/h (3 Bft) 97,87 %
18.09.2015 02:06 11,4 C 11,7 C 10,0 C 97 % 15 lf 1010,6 hPa 0,0 l/m 0 min 0 min 0 W/m 14,6 km/h (3 Bft) 97,87 %
18.09.2015 02:08 11,4 C 11,7 C 10,0 C 97 % 15 lf 1010,6 hPa 0,0 l/m 0 min 0 min 0 W/m 10,5 km/h (2 Bft) 97,87 %
18.09.2015 02:10 11,4 C 11,7 C 10,0 C 97 % 15 lf 1010,5 hPa 0,0 l/m 0 min 0 min 0 W/m 12,6 km/h (3 Bft) 93,62 %
18.09.2015 02:12 11,4 C 11,7 C 10,0 C 97 % 15 lf 1010,6 hPa 0,0 l/m 0 min 0 min 0 W/m 14,6 km/h (3 Bft) 95,74 %
18.09.2015 02:14 11,4 C 11,1 C 10,0 C 97 % 15 lf 1010,6 hPa 0,0 l/m 0 min 0 min 0 W/m 8,4 km/h (2 Bft) 97,83 %
18.09.2015 02:16 11,4 C 11,1 C 10,0 C 97 % 15 lf 1010,6 hPa 0,0 l/m 0 min 0 min 0 W/m 10,5 km/h (2 Bft) 97,87 %
18.09.2015 02:18 11,4 C 11,1 C 10,0 C 97 % 15 lf 1010,7 hPa 0,0 l/m 0 min 0 min 0 W/m 10,5 km/h (2 Bft) 97,87 %
18.09.2015 02:20 11,4 C 11,1 C 10,0 C 97 % 15 lf 1010,7 hPa 0,0 l/m 0 min 0 min 0 W/m 8,4 km/h (2 Bft) 93,62 %
18.09.2015 02:22 11,4 C 11,1 C 10,0 C 97 % 15 lf 1010,7 hPa 0,0 l/m 0 min 0 min 0 W/m 10,5 km/h (2 Bft) 97,87 %
18.09.2015 02:24 11,4 C 11,1 C 10,0 C 97 % 15 lf 1010,7 hPa 0,0 l/m 0 min 0 min 0 W/m 8,4 km/h (2 Bft) 95,74 %
18.09.2015 02:26 11,3 C 11,1 C 10,0 C 97 % 15 lf 1010,6 hPa 0,0 l/m 0 min 0 min 0 W/m 10,5 km/h (2 Bft) 97,83 %
18.09.2015 02:28 11,3 C 11,1 C 10,0 C 97 % 15 lf 1010,7 hPa 0,0 l/m 0 min 0 min 0 W/m 10,5 km/h (2 Bft) 93,62 %
18.09.2015 02:30 11,3 C 11,1 C 10,0 C 97 % 15 lf 1010,7 hPa 0,0 l/m 0 min 0 min 0 W/m 12,6 km/h (3 Bft) 97,87 %
18.09.2015 02:32 11,3 C 11,1 C 10,0 C 97 % 15 lf 1010,7 hPa 0,0 l/m 0 min 0 min 0 W/m 12,6 km/h (3 Bft) 97,87 %
18.09.2015 02:34 11,3 C 11,7 C 10,0 C 97 % 15 lf 1010,9 hPa 0,0 l/m 0 min 0 min 0 W/m 16,7 km/h (3 Bft) 97,87 %
18.09.2015 02:36 11,3 C 11,1 C 10,0 C 97 % 15 lf 1010,9 hPa 0,0 l/m 0 min 0 min 0 W/m 8,4 km/h (2 Bft) 95,74 %
18.09.2015 02:38 11,4 C 11,1 C 10,0 C 97 % 15 lf 1010,9 hPa 0,0 l/m 0 min 0 min 0 W/m 8,4 km/h (2 Bft) 95,74 %
18.09.2015 02:40 11,4 C 11,1 C 10,0 C 97 % 15 lf 1010,9 hPa 0,0 l/m 0 min 0 min 0 W/m 8,4 km/h (2 Bft) 100,00 %
18.09.2015 02:42 11,4 C 11,7 C 10,0 C 97 % 15 lf 1010,9 hPa 0,0 l/m 0 min 0 min 0 W/m 12,6 km/h (3 Bft) 100,00 %
18.09.2015 02:44 11,4 C 11,7 C 10,0 C 97 % 15 lf 1010,9 hPa 0,0 l/m 0 min 0 min 0 W/m 8,4 km/h (2 Bft) 97,87 %
18.09.2015 02:46 11,4 C 11,1 C 10,0 C 97 % 15 lf 1010,9 hPa 0,0 l/m 0 min 0 min 0 W/m 6,3 km/h (2 Bft) 97,87 %
18.09.2015 02:48 11,4 C 11,1 C 10,0 C 97 % 15 lf 1010,9 hPa 0,0 l/m 0 min 0 min 0 W/m 8,4 km/h (2 Bft) 93,62 %
18.09.2015 02:50 11,4 C 11,1 C 10,0 C 97 % 15 lf 1010,9 hPa 0,0 l/m 0 min 0 min 0 W/m 12,6 km/h (3 Bft) 100,00 %
18.09.2015 02:52 11,3 C 11,1 C 9,4 C 97 % 15 lf 1010,9 hPa 0,0 l/m 0 min 0 min 0 W/m 6,3 km/h (2 Bft) 100,00 %
18.09.2015 02:54 11,3 C 11,1 C 9,4 C 97 % 15 lf 1011,0 hPa 0,0 l/m 0 min 0 min 0 W/m 8,4 km/h (2 Bft) 91,49 %
18.09.2015 02:56 11,3 C 11,1 C 9,4 C 97 % 15 lf 1010,9 hPa 0,0 l/m 0 min 0 min 0 W/m 8,4 km/h (2 Bft) 97,87 %
18.09.2015 02:58 11,3 C 11,1 C 9,4 C 97 % 15 lf 1010,9 hPa 0,0 l/m 0 min 0 min 0 W/m 14,6 km/h (3 Bft) 97,87 %
18.09.2015 03:00 11,3 C 11,1 C 9,4 C 97 % 15 lf 1010,9 hPa 0,0 l/m 0 min 0 min 0 W/m 10,5 km/h (2 Bft) 100,00 %
18.09.2015 03:02 11,3 C 11,1 C 9,4 C 97 % 15 lf 1010,9 hPa 0,0 l/m 0 min 0 min 0 W/m 6,3 km/h (2 Bft) 97,83 %
18.09.2015 03:04 11,3 C 11,1 C 9,4 C 97 % 15 lf 1010,9 hPa 0,0 l/m 0 min 0 min 0 W/m 10,5 km/h (2 Bft) 97,87 %
18.09.2015 03:06 11,3 C 11,1 C 9,4 C 97 % 15 lf 1010,9 hPa 0,0 l/m 0 min 0 min 0 W/m 6,3 km/h (2 Bft) 97,87 %
18.09.2015 03:08 11,3 C 11,1 C 9,4 C 97 % 15 lf 1010,9 hPa 0,0 l/m 0 min 0 min 0 W/m 6,3 km/h (2 Bft) 97,87 %
18.09.2015 03:10 11,3 C 11,1 C 9,4 C 97 % 15 lf 1011,0 hPa 0,0 l/m 0 min 0 min 0 W/m 10,5 km/h (2 Bft) 93,62 %
18.09.2015 03:12 11,3 C 11,1 C 9,4 C 97 % 15 lf 1011,0 hPa 0,0 l/m 0 min 0 min 0 W/m 6,3 km/h (2 Bft) 95,74 %
18.09.2015 03:14 11,3 C 11,1 C 9,4 C 97 % 15 lf 1011,0 hPa 0,0 l/m 0 min 0 min 0 W/m 10,5 km/h (2 Bft) 95,65 %
18.09.2015 03:16 11,3 C 11,1 C 9,4 C 97 % 15 lf 1011,0 hPa 0,0 l/m 0 min 0 min 0 W/m 6,3 km/h (2 Bft) 97,87 %
18.09.2015 03:18 11,2 C 11,1 C 9,4 C 97 % 15 lf 1011,0 hPa 0,0 l/m 0 min 0 min 0 W/m 10,5 km/h (2 Bft) 97,87 %
18.09.2015 03:20 11,2 C 11,1 C 9,4 C 97 % 15 lf 1011,0 hPa 0,0 l/m 0 min 0 min 0 W/m 6,3 km/h (2 Bft) 95,74 %
18.09.2015 03:22 11,2 C 11,1 C 9,4 C 97 % 15 lf 1011,0 hPa 0,0 l/m 0 min 0 min 0 W/m 6,3 km/h (2 Bft) 95,74 %
18.09.2015 03:24 11,2 C 11,1 C 9,4 C 97 % 15 lf 1011,1 hPa 0,0 l/m 0 min 0 min 0 W/m 6,3 km/h (2 Bft) 97,83 %
18.09.2015 03:26 11,2 C 11,1 C 9,4 C 97 % 15 lf 1011,1 hPa 0,0 l/m 0 min 0 min 0 W/m 6,3 km/h (2 Bft) 95,74 %
18.09.2015 03:28 11,2 C 11,1 C 9,4 C 97 % 15 lf 1011,0 hPa 0,0 l/m 0 min 0 min 0 W/m 6,3 km/h (2 Bft) 95,74 %
18.09.2015 03:30 11,2 C 10,6 C 9,4 C 97 % 15 lf 1011,1 hPa 0,0 l/m 0 min 0 min 0 W/m 8,4 km/h (2 Bft) 93,62 %
18.09.2015 03:32 11,2 C 10,6 C 9,4 C 97 % 15 lf 1011,1 hPa 0,0 l/m 0 min 0 min 0 W/m 8,4 km/h (2 Bft) 97,87 %
18.09.2015 03:34 11,2 C 11,1 C 9,4 C 97 % 15 lf 1011,1 hPa 0,0 l/m 0 min 0 min 0 W/m 4,2 km/h (1 Bft) 95,74 %
18.09.2015 03:36 11,2 C 10,6 C 9,4 C 97 % 15 lf 1011,2 hPa 0,0 l/m 0 min 0 min 0 W/m 8,4 km/h (2 Bft) 95,74 %
18.09.2015 03:38 11,1 C 11,1 C 9,4 C 97 % 15 lf 1011,1 hPa 0,0 l/m 0 min 0 min 0 W/m 6,3 km/h (2 Bft) 91,30 %
18.09.2015 03:40 11,1 C 11,1 C 9,4 C 97 % 15 lf 1011,1 hPa 0,0 l/m 0 min 0 min 0 W/m 8,4 km/h (2 Bft) 93,62 %
18.09.2015 03:42 11,1 C 11,1 C 9,4 C 97 % 15 lf 1011,2 hPa 0,0 l/m 0 min 0 min 0 W/m 4,2 km/h (1 Bft) 95,74 %
18.09.2015 03:44 11,1 C 11,1 C 9,4 C 97 % 15 lf 1011,2 hPa 0,0 l/m 0 min 0 min 0 W/m 8,4 km/h (2 Bft) 87,23 %
18.09.2015 03:46 11,1 C 11,1 C 9,4 C 97 % 15 lf 1011,2 hPa 0,0 l/m 0 min 0 min 0 W/m 6,3 km/h (2 Bft) 95,74 %
18.09.2015 03:48 11,1 C 11,1 C 9,4 C 97 % 15 lf 1011,2 hPa 0,0 l/m 0 min 0 min 0 W/m 6,3 km/h (2 Bft) 93,48 %
18.09.2015 03:50 11,1 C 11,1 C 9,4 C 97 % 15 lf 1011,3 hPa 0,0 l/m 0 min 0 min 0 W/m 8,4 km/h (2 Bft) 95,74 %
18.09.2015 03:52 11,1 C 11,1 C 9,4 C 97 % 15 lf 1011,3 hPa 0,0 l/m 0 min 2 min 0 W/m 8,4 km/h (2 Bft) 95,74 %
18.09.2015 03:54 11,1 C 11,1 C 9,4 C 97 % 15 lf 1011,3 hPa 0,2 l/m 0 min 2 min 0 W/m 10,5 km/h (2 Bft) 95,74 %
18.09.2015 03:56 11,1 C 11,1 C 9,4 C 97 % 15 lf 1011,4 hPa 0,0 l/m 0 min 2 min 0 W/m 10,5 km/h (2 Bft) 97,87 %
18.09.2015 03:58 11,1 C 11,1 C 9,4 C 97 % 15 lf 1011,4 hPa 0,0 l/m 0 min 0 min 0 W/m 8,4 km/h (2 Bft) 95,74 %
18.09.2015 04:00 11,1 C 10,6 C 9,4 C 97 % 15 lf 1011,5 hPa 0,0 l/m 0 min 0 min 0 W/m 12,6 km/h (3 Bft) 97,83 %
18.09.2015 04:02 11,1 C 10,6 C 9,4 C 97 % 15 lf 1011,5 hPa 0,0 l/m 0 min 0 min 0 W/m 8,4 km/h (2 Bft) 80,00 %
18.09.2015 04:04 11,1 C 11,1 C 9,4 C 97 % 15 lf 1011,4 hPa 0,0 l/m 0 min 0 min 0 W/m 8,4 km/h (2 Bft) 95,74 %
18.09.2015 04:06 11,0 C 10,6 C 9,4 C 97 % 15 lf 1011,4 hPa 0,0 l/m 0 min 0 min 0 W/m 6,3 km/h (2 Bft) 97,87 %
18.09.2015 04:08 11,0 C 10,6 C 9,4 C 97 % 15 lf 1011,4 hPa 0,0 l/m 0 min 0 min 0 W/m 10,5 km/h (2 Bft) 97,87 %
18.09.2015 04:10 11,0 C 10,6 C 9,4 C 97 % 15 lf 1011,5 hPa 0,0 l/m 0 min 0 min 0 W/m 8,4 km/h (2 Bft) 95,74 %
18.09.2015 04:12 11,0 C 10,6 C 9,4 C 97 % 15 lf 1011,4 hPa 0,0 l/m 0 min 0 min 0 W/m 8,4 km/h (2 Bft) 97,83 %
18.09.2015 04:14 11,0 C 10,6 C 9,4 C 97 % 15 lf 1011,4 hPa 0,0 l/m 0 min 0 min 0 W/m 8,4 km/h (2 Bft) 97,87 %
18.09.2015 04:16 11,0 C 10,6 C 9,4 C 97 % 15 lf 1011,3 hPa 0,0 l/m 0 min 0 min 0 W/m 6,3 km/h (2 Bft) 97,87 %
18.09.2015 04:18 10,9 C 10,6 C 9,4 C 97 % 15 lf 1011,4 hPa 0,0 l/m 0 min 0 min 0 W/m 8,4 km/h (2 Bft) 97,87 %
18.09.2015 04:20 10,9 C 10,6 C 9,4 C 97 % 15 lf 1011,3 hPa 0,0 l/m 0 min 0 min 0 W/m 6,3 km/h (2 Bft) 95,74 %
18.09.2015 04:22 10,9 C 10,6 C 9,4 C 97 % 15 lf 1011,3 hPa 0,0 l/m 0 min 0 min 0 W/m 8,4 km/h (2 Bft) 100,00 %
18.09.2015 04:24 10,9 C 10,6 C 9,4 C 97 % 15 lf 1011,4 hPa 0,0 l/m 0 min 0 min 0 W/m 10,5 km/h (2 Bft) 100,00 %
18.09.2015 04:26 10,9 C 10,6 C 9,4 C 97 % 15 lf 1011,3 hPa 0,0 l/m 0 min 0 min 0 W/m 8,4 km/h (2 Bft) 100,00 %
18.09.2015 04:28 10,9 C 10,6 C 9,4 C 97 % 15 lf 1011,4 hPa 0,0 l/m 0 min 0 min 0 W/m 8,4 km/h (2 Bft) 97,87 %
18.09.2015 04:30 10,9 C 11,1 C 9,4 C 97 % 15 lf 1011,4 hPa 0,0 l/m 0 min 0 min 0 W/m 8,4 km/h (2 Bft) 100,00 %
18.09.2015 04:32 10,9 C 11,1 C 9,4 C 97 % 15 lf 1011,5 hPa 0,0 l/m 0 min 0 min 0 W/m 14,6 km/h (3 Bft) 95,74 %
18.09.2015 04:34 10,9 C 11,1 C 9,4 C 97 % 15 lf 1011,4 hPa 0,0 l/m 0 min 0 min 0 W/m 10,5 km/h (2 Bft) 100,00 %
18.09.2015 04:36 10,9 C 11,1 C 9,4 C 97 % 15 lf 1011,5 hPa 0,0 l/m 0 min 0 min 0 W/m 10,5 km/h (2 Bft) 100,00 %
18.09.2015 04:38 10,9 C 11,1 C 9,4 C 97 % 15 lf 1011,5 hPa 0,0 l/m 0 min 0 min 0 W/m 8,4 km/h (2 Bft) 100,00 %
18.09.2015 04:40 10,9 C 10,6 C 9,4 C 97 % 15 lf 1011,5 hPa 0,0 l/m 0 min 0 min 0 W/m 8,4 km/h (2 Bft) 100,00 %
18.09.2015 04:42 10,9 C 10,6 C 9,4 C 97 % 15 lf 1011,5 hPa 0,0 l/m 0 min 0 min 0 W/m 6,3 km/h (2 Bft) 100,00 %
18.09.2015 04:44 10,9 C 10,6 C 9,4 C 97 % 15 lf 1011,5 hPa 0,0 l/m 0 min 0 min 0 W/m 6,3 km/h (2 Bft) 97,87 %
18.09.2015 04:46 10,9 C 10,6 C 9,4 C 97 % 15 lf 1011,5 hPa 0,0 l/m 0 min 0 min 0 W/m 6,3 km/h (2 Bft) 100,00 %
18.09.2015 04:48 10,9 C 10,6 C 9,4 C 97 % 15 lf 1011,6 hPa 0,0 l/m 0 min 0 min 0 W/m 8,4 km/h (2 Bft) 100,00 %
18.09.2015 04:50 10,9 C 10,6 C 9,4 C 97 % 15 lf 1011,5 hPa 0,0 l/m 0 min 0 min 0 W/m 10,5 km/h (2 Bft) 100,00 %
18.09.2015 04:52 10,9 C 10,6 C 9,4 C 97 % 15 lf 1011,6 hPa 0,0 l/m 0 min 0 min 0 W/m 10,5 km/h (2 Bft) 100,00 %
18.09.2015 04:54 10,9 C 10,6 C 9,4 C 97 % 15 lf 1011,6 hPa 0,0 l/m 0 min 0 min 0 W/m 8,4 km/h (2 Bft) 98,00 %
18.09.2015 04:56 10,9 C 10,6 C 9,4 C 97 % 15 lf 1011,6 hPa 0,0 l/m 0 min 0 min 0 W/m 10,5 km/h (2 Bft) 97,87 %
18.09.2015 04:58 10,8 C 10,6 C 9,4 C 97 % 15 lf 1011,7 hPa 0,0 l/m 0 min 0 min 0 W/m 6,3 km/h (2 Bft) 100,00 %
18.09.2015 05:00 10,8 C 10,6 C 9,4 C 97 % 15 lf 1011,7 hPa 0,0 l/m 0 min 0 min 0 W/m 6,3 km/h (2 Bft) 100,00 %
18.09.2015 05:02 10,8 C 10,6 C 8,9 C 97 % 15 lf 1011,7 hPa 0,0 l/m 0 min 0 min 0 W/m 10,5 km/h (2 Bft) 95,74 %
18.09.2015 05:04 10,8 C 10,6 C 8,9 C 97 % 15 lf 1011,7 hPa 0,0 l/m 0 min 0 min 0 W/m 8,4 km/h (2 Bft) 97,87 %
18.09.2015 05:06 10,8 C 10,6 C 8,9 C 97 % 15 lf 1011,7 hPa 0,0 l/m 0 min 0 min 0 W/m 8,4 km/h (2 Bft) 100,00 %
18.09.2015 05:08 10,8 C 10,6 C 8,9 C 97 % 15 lf 1011,6 hPa 0,0 l/m 0 min 0 min 0 W/m 8,4 km/h (2 Bft) 97,83 %
18.09.2015 05:10 10,8 C 10,6 C 8,9 C 97 % 15 lf 1011,7 hPa 0,0 l/m 0 min 0 min 0 W/m 8,4 km/h (2 Bft) 100,00 %
18.09.2015 05:12 10,8 C 10,6 C 8,9 C 97 % 15 lf 1011,7 hPa 0,0 l/m 0 min 0 min 0 W/m 6,3 km/h (2 Bft) 100,00 %
18.09.2015 05:14 10,8 C 10,6 C 8,9 C 97 % 15 lf 1011,8 hPa 0,0 l/m 0 min 0 min 0 W/m 6,3 km/h (2 Bft) 97,87 %
18.09.2015 05:16 10,8 C 10,6 C 8,9 C 97 % 15 lf 1011,8 hPa 0,0 l/m 0 min 0 min 0 W/m 6,3 km/h (2 Bft) 95,74 %
18.09.2015 05:18 10,8 C 10,6 C 8,9 C 97 % 15 lf 1011,8 hPa 0,0 l/m 0 min 0 min 0 W/m 6,3 km/h (2 Bft) 100,00 %
18.09.2015 05:20 10,7 C 10,6 C 8,9 C 97 % 15 lf 1011,8 hPa 0,0 l/m 0 min 0 min 0 W/m 6,3 km/h (2 Bft) 95,65 %
18.09.2015 05:22 10,7 C 10,6 C 8,9 C 97 % 15 lf 1011,8 hPa 0,0 l/m 0 min 0 min 0 W/m 6,3 km/h (2 Bft) 100,00 %
18.09.2015 05:24 10,7 C 10,6 C 8,9 C 97 % 15 lf 1011,8 hPa 0,0 l/m 0 min 0 min 0 W/m 6,3 km/h (2 Bft) 100,00 %
18.09.2015 05:26 10,7 C 10,0 C 8,9 C 97 % 15 lf 1011,8 hPa 0,0 l/m 0 min 0 min 0 W/m 6,3 km/h (2 Bft) 100,00 %
18.09.2015 05:28 10,7 C 10,0 C 8,9 C 97 % 15 lf 1011,8 hPa 0,0 l/m 0 min 0 min 0 W/m 4,2 km/h (1 Bft) 97,87 %
18.09.2015 05:30 10,7 C 10,0 C 8,9 C 97 % 15 lf 1011,8 hPa 0,0 l/m 0 min 0 min 0 W/m 4,2 km/h (1 Bft) 97,87 %
18.09.2015 05:32 10,7 C 10,0 C 8,9 C 97 % 15 lf 1011,8 hPa 0,0 l/m 0 min 0 min 0 W/m 2,1 km/h (1 Bft) 95,65 %
18.09.2015 05:34 10,6 C 10,0 C 8,9 C 97 % 15 lf 1011,8 hPa 0,0 l/m 0 min 0 min 0 W/m 6,3 km/h (2 Bft) 97,87 %
18.09.2015 05:36 10,6 C 10,0 C 8,9 C 97 % 15 lf 1011,8 hPa 0,0 l/m 0 min 0 min 0 W/m 6,3 km/h (2 Bft) 93,62 %
18.09.2015 05:38 10,6 C 10,0 C 8,3 C 97 % 15 lf 1011,8 hPa 0,0 l/m 0 min 0 min 0 W/m 6,3 km/h (2 Bft) 93,62 %
18.09.2015 05:40 10,6 C 10,0 C 8,3 C 97 % 15 lf 1011,9 hPa 0,0 l/m 0 min 0 min 0 W/m 6,3 km/h (2 Bft) 97,87 %
18.09.2015 05:42 10,5 C 10,0 C 8,9 C 97 % 15 lf 1011,9 hPa 0,0 l/m 0 min 0 min 0 W/m 8,4 km/h (2 Bft) 95,74 %
18.09.2015 05:44 10,5 C 10,0 C 8,9 C 97 % 15 lf 1011,9 hPa 0,0 l/m 0 min 0 min 0 W/m 8,4 km/h (2 Bft) 95,65 %
18.09.2015 05:46 10,4 C 10,0 C 8,9 C 97 % 15 lf 1011,9 hPa 0,0 l/m 0 min 0 min 0 W/m 8,4 km/h (2 Bft) 97,87 %
18.09.2015 05:48 10,4 C 10,0 C 8,9 C 97 % 15 lf 1011,8 hPa 0,0 l/m 0 min 0 min 0 W/m 10,5 km/h (2 Bft) 97,87 %
18.09.2015 05:50 10,4 C 10,6 C 8,9 C 97 % 15 lf 1011,8 hPa 0,0 l/m 0 min 0 min 0 W/m 18,8 km/h (3 Bft) 95,74 %
18.09.2015 05:52 10,4 C 10,6 C 8,9 C 97 % 15 lf 1011,9 hPa 0,0 l/m 0 min 0 min 0 W/m 16,7 km/h (3 Bft) 97,87 %
18.09.2015 05:54 10,4 C 10,6 C 8,9 C 97 % 15 lf 1011,9 hPa 0,0 l/m 0 min 0 min 0 W/m 12,6 km/h (3 Bft) 91,49 %
18.09.2015 05:56 10,4 C 10,6 C 8,9 C 97 % 15 lf 1011,9 hPa 0,0 l/m 0 min 0 min 0 W/m 10,5 km/h (2 Bft) 97,83 %
18.09.2015 05:58 10,4 C 10,6 C 8,9 C 97 % 15 lf 1011,8 hPa 0,0 l/m 0 min 0 min 0 W/m 10,5 km/h (2 Bft) 95,74 %
18.09.2015 06:00 10,4 C 10,6 C 8,9 C 97 % 15 lf 1011,8 hPa 0,0 l/m 0 min 0 min 0 W/m 10,5 km/h (2 Bft) 93,62 %
18.09.2015 06:02 10,4 C 10,6 C 8,9 C 97 % 15 lf 1011,8 hPa 0,0 l/m 0 min 0 min 0 W/m 14,6 km/h (3 Bft) 95,74 %
18.09.2015 06:06 10,4 C 10,6 C 8,9 C 97 % 15 lf 1011,8 hPa 0,0 l/m 0 min 0 min 0 W/m 14,6 km/h (3 Bft) 94,68 %
18.09.2015 06:08 10,4 C 10,6 C 8,9 C 97 % 15 lf 1011,8 hPa 0,0 l/m 0 min 0 min 0 W/m 10,5 km/h (2 Bft) 95,74 %
18.09.2015 06:10 10,4 C 10,6 C 8,9 C 97 % 15 lf 1011,8 hPa 0,0 l/m 0 min 0 min 0 W/m 14,6 km/h (3 Bft) 89,36 %
18.09.2015 06:12 10,4 C 10,6 C 8,9 C 97 % 15 lf 1011,8 hPa 0,0 l/m 0 min 0 min 0 W/m 16,7 km/h (3 Bft) 93,62 %
18.09.2015 06:14 10,4 C 10,6 C 8,9 C 97 % 15 lf 1011,8 hPa 0,0 l/m 0 min 0 min 0 W/m 14,6 km/h (3 Bft) 93,62 %
18.09.2015 06:16 10,5 C 10,6 C 9,4 C 97 % 15 lf 1011,8 hPa 0,0 l/m 0 min 0 min 0 W/m 14,6 km/h (3 Bft) 93,62 %
18.09.2015 06:18 10,5 C 10,6 C 8,9 C 97 % 15 lf 1011,7 hPa 0,0 l/m 0 min 0 min 0 W/m 14,6 km/h (3 Bft) 93,48 %
18.09.2015 06:20 10,5 C 10,6 C 8,9 C 97 % 15 lf 1011,8 hPa 0,0 l/m 0 min 0 min 0 W/m 14,6 km/h (3 Bft) 93,62 %
18.09.2015 06:22 10,5 C 10,6 C 9,4 C 97 % 15 lf 1011,8 hPa 0,0 l/m 0 min 0 min 0 W/m 16,7 km/h (3 Bft) 91,49 %
18.09.2015 06:24 10,5 C 10,6 C 9,4 C 97 % 15 lf 1011,8 hPa 0,0 l/m 0 min 0 min 0 W/m 14,6 km/h (3 Bft) 91,49 %
18.09.2015 06:26 10,5 C 10,6 C 9,4 C 97 % 15 lf 1011,8 hPa 0,0 l/m 0 min 0 min 0 W/m 14,6 km/h (3 Bft) 89,36 %
18.09.2015 06:28 10,6 C 10,6 C 9,4 C 97 % 15 lf 1011,9 hPa 0,0 l/m 0 min 0 min 0 W/m 12,6 km/h (3 Bft) 93,62 %
18.09.2015 06:30 10,6 C 10,6 C 9,4 C 97 % 15 lf 1011,8 hPa 0,0 l/m 0 min 0 min 0 W/m 12,6 km/h (3 Bft) 86,96 %
18.09.2015 06:32 10,6 C 10,6 C 8,9 C 97 % 15 lf 1011,9 hPa 0,0 l/m 0 min 0 min 0 W/m 14,6 km/h (3 Bft) 93,62 %
18.09.2015 06:34 10,6 C 10,6 C 9,4 C 97 % 15 lf 1011,8 hPa 0,0 l/m 0 min 0 min 0 W/m 12,6 km/h (3 Bft) 93,62 %
18.09.2015 06:36 10,5 C 10,6 C 8,9 C 97 % 15 lf 1011,9 hPa 0,0 l/m 0 min 0 min 0 W/m 12,6 km/h (3 Bft) 93,62 %
18.09.2015 06:38 10,6 C 10,6 C 9,4 C 97 % 15 lf 1011,9 hPa 0,0 l/m 0 min 0 min 0 W/m 16,7 km/h (3 Bft) 93,62 %
18.09.2015 06:40 10,6 C 10,6 C 9,4 C 97 % 15 lf 1011,9 hPa 0,0 l/m 0 min 0 min 0 W/m 14,6 km/h (3 Bft) 91,49 %
18.09.2015 06:42 10,6 C 10,6 C 8,9 C 97 % 15 lf 1012,0 hPa 0,0 l/m 0 min 0 min 0 W/m 14,6 km/h (3 Bft) 97,83 %
18.09.2015 06:44 10,6 C 10,6 C 8,9 C 97 % 15 lf 1012,0 hPa 0,0 l/m 0 min 0 min 0 W/m 8,4 km/h (2 Bft) 93,62 %
18.09.2015 06:46 10,5 C 10,6 C 9,4 C 97 % 15 lf 1012,0 hPa 0,0 l/m 0 min 0 min 0 W/m 20,9 km/h (4 Bft) 97,87 %
18.09.2015 06:48 10,6 C 10,6 C 9,4 C 97 % 15 lf 1012,0 hPa 0,0 l/m 0 min 0 min 0 W/m 14,6 km/h (3 Bft) 95,74 %
18.09.2015 06:50 10,6 C 10,6 C 9,4 C 97 % 15 lf 1012,1 hPa 0,0 l/m 0 min 0 min 0 W/m 14,6 km/h (3 Bft) 93,62 %
18.09.2015 06:52 10,6 C 10,6 C 9,4 C 98 % 15 lf 1012,0 hPa 0,0 l/m 0 min 0 min 0 W/m 14,6 km/h (3 Bft) 97,87 %
18.09.2015 06:54 10,6 C 10,6 C 9,4 C 98 % 15 lf 1012,1 hPa 0,0 l/m 0 min 0 min 0 W/m 12,6 km/h (3 Bft) 97,83 %
18.09.2015 06:56 10,6 C 10,6 C 9,4 C 98 % 15 lf 1012,1 hPa 0,0 l/m 0 min 0 min 0 W/m 10,5 km/h (2 Bft) 100,00 %
18.09.2015 06:58 10,6 C 10,6 C 9,4 C 98 % 15 lf 1012,2 hPa 0,0 l/m 0 min 0 min 0 W/m 14,6 km/h (3 Bft) 97,87 %
18.09.2015 07:00 10,6 C 10,6 C 9,4 C 98 % 15 lf 1012,2 hPa 0,0 l/m 0 min 0 min 0 W/m 10,5 km/h (2 Bft) 100,00 %
18.09.2015 07:02 10,6 C 10,6 C 8,9 C 98 % 15 lf 1012,2 hPa 0,0 l/m 0 min 0 min 0 W/m 12,6 km/h (3 Bft) 95,74 %
18.09.2015 07:04 10,6 C 10,6 C 8,9 C 98 % 15 lf 1012,2 hPa 0,0 l/m 0 min 0 min 0 W/m 12,6 km/h (3 Bft) 97,87 %
18.09.2015 07:06 10,6 C 10,6 C 8,9 C 98 % 15 lf 1012,3 hPa 0,0 l/m 0 min 0 min 3 W/m 8,4 km/h (2 Bft) 95,65 %
18.09.2015 07:08 10,6 C 10,6 C 8,9 C 98 % 15 lf 1012,3 hPa 0,0 l/m 0 min 0 min 6 W/m 12,6 km/h (3 Bft) 100,00 %
18.09.2015 07:10 10,6 C 10,6 C 8,9 C 98 % 15 lf 1012,4 hPa 0,0 l/m 0 min 0 min 7 W/m 12,6 km/h (3 Bft) 100,00 %
18.09.2015 07:12 10,6 C 10,6 C 8,9 C 98 % 15 lf 1012,4 hPa 0,0 l/m 0 min 0 min 7 W/m 10,5 km/h (2 Bft) 100,00 %
18.09.2015 07:14 10,5 C 10,6 C 9,4 C 98 % 15 lf 1012,4 hPa 0,0 l/m 0 min 0 min 7 W/m 16,7 km/h (3 Bft) 97,87 %
18.09.2015 07:16 10,5 C 10,6 C 9,4 C 98 % 15 lf 1012,5 hPa 0,0 l/m 0 min 0 min 8 W/m 14,6 km/h (3 Bft) 95,74 %
18.09.2015 07:18 10,5 C 10,6 C 9,4 C 98 % 15 lf 1012,5 hPa 0,0 l/m 0 min 0 min 10 W/m 12,6 km/h (3 Bft) 97,83 %
18.09.2015 07:20 10,5 C 10,6 C 9,4 C 98 % 15 lf 1012,5 hPa 0,0 l/m 0 min 0 min 11 W/m 12,6 km/h (3 Bft) 100,00 %
18.09.2015 07:22 10,5 C 10,6 C 9,4 C 98 % 15 lf 1012,5 hPa 0,0 l/m 0 min 0 min 13 W/m 14,6 km/h (3 Bft) 100,00 %
18.09.2015 07:24 10,5 C 10,6 C 9,4 C 98 % 15 lf 1012,5 hPa 0,0 l/m 0 min 0 min 15 W/m 16,7 km/h (3 Bft) 100,00 %
18.09.2015 07:26 10,6 C 10,6 C 9,4 C 98 % 15 lf 1012,5 hPa 0,0 l/m 0 min 0 min 18 W/m 10,5 km/h (2 Bft) 100,00 %
18.09.2015 07:28 10,6 C 10,6 C 9,4 C 98 % 15 lf 1012,5 hPa 0,0 l/m 2 min 0 min 19 W/m 14,6 km/h (3 Bft) 100,00 %
18.09.2015 07:30 10,5 C 10,6 C 9,4 C 98 % 15 lf 1012,5 hPa 0,0 l/m 2 min 0 min 22 W/m 10,5 km/h (2 Bft) 100,00 %
18.09.2015 07:32 10,6 C 11,1 C 9,4 C 98 % 15 lf 1012,5 hPa 0,0 l/m 2 min 0 min 23 W/m 12,6 km/h (3 Bft) 100,00 %
18.09.2015 07:34 10,6 C 11,1 C 9,4 C 98 % 15 lf 1012,5 hPa 0,0 l/m 2 min 0 min 24 W/m 14,6 km/h (3 Bft) 97,87 %
18.09.2015 07:36 10,6 C 11,1 C 9,4 C 98 % 15 lf 1012,5 hPa 0,0 l/m 2 min 0 min 25 W/m 12,6 km/h (3 Bft) 97,87 %
18.09.2015 07:38 10,6 C 11,1 C 9,4 C 98 % 15 lf 1012,5 hPa 0,0 l/m 2 min 0 min 28 W/m 14,6 km/h (3 Bft) 100,00 %
18.09.2015 07:40 10,6 C 11,1 C 9,4 C 98 % 15 lf 1012,6 hPa 0,0 l/m 2 min 0 min 30 W/m 10,5 km/h (2 Bft) 100,00 %
18.09.2015 07:42 10,6 C 11,1 C 9,4 C 98 % 15 lf 1012,5 hPa 0,0 l/m 2 min 0 min 32 W/m 14,6 km/h (3 Bft) 97,87 %
18.09.2015 07:44 10,6 C 11,1 C 9,4 C 98 % 15 lf 1012,6 hPa 0,0 l/m 0 min 0 min 34 W/m 12,6 km/h (3 Bft) 100,00 %
18.09.2015 07:46 10,6 C 11,1 C 9,4 C 98 % 15 lf 1012,6 hPa 0,0 l/m 2 min 0 min 40 W/m 12,6 km/h (3 Bft) 97,87 %
18.09.2015 07:48 10,7 C 11,1 C 9,4 C 98 % 15 lf 1012,8 hPa 0,0 l/m 2 min 0 min 40 W/m 12,6 km/h (3 Bft) 97,87 %
18.09.2015 07:50 10,6 C 11,1 C 9,4 C 98 % 15 lf 1012,7 hPa 0,0 l/m 0 min 0 min 40 W/m 12,6 km/h (3 Bft) 100,00 %
18.09.2015 07:52 10,7 C 11,1 C 9,4 C 98 % 15 lf 1012,7 hPa 0,0 l/m 2 min 0 min 46 W/m 12,6 km/h (3 Bft) 97,83 %
18.09.2015 07:54 10,7 C 11,7 C 9,4 C 98 % 15 lf 1012,7 hPa 0,0 l/m 2 min 0 min 60 W/m 10,5 km/h (2 Bft) 95,74 %
18.09.2015 07:56 10,7 C 11,7 C 9,4 C 98 % 15 lf 1012,8 hPa 0,0 l/m 2 min 0 min 66 W/m 12,6 km/h (3 Bft) 97,87 %
18.09.2015 07:58 10,7 C 11,7 C 9,4 C 98 % 15 lf 1012,8 hPa 0,0 l/m 2 min 0 min 64 W/m 14,6 km/h (3 Bft) 100,00 %
18.09.2015 08:00 10,7 C 11,7 C 9,4 C 98 % 15 lf 1012,8 hPa 0,0 l/m 2 min 0 min 56 W/m 14,6 km/h (3 Bft) 100,00 %
18.09.2015 08:02 10,7 C 11,7 C 9,4 C 98 % 15 lf 1012,7 hPa 0,0 l/m 0 min 0 min 56 W/m 10,5 km/h (2 Bft) 97,87 %
18.09.2015 08:04 10,8 C 11,7 C 9,4 C 98 % 15 lf 1012,8 hPa 0,0 l/m 0 min 0 min 54 W/m 12,6 km/h (3 Bft) 97,83 %
18.09.2015 08:06 10,8 C 11,7 C 9,4 C 98 % 15 lf 1012,8 hPa 0,0 l/m 0 min 0 min 56 W/m 12,6 km/h (3 Bft) 97,87 %
18.09.2015 08:08 10,8 C 11,7 C 9,4 C 98 % 15 lf 1012,8 hPa 0,0 l/m 0 min 0 min 50 W/m 12,6 km/h (3 Bft) 100,00 %
18.09.2015 08:10 10,8 C 11,7 C 9,4 C 98 % 15 lf 1012,9 hPa 0,0 l/m 0 min 0 min 53 W/m 14,6 km/h (3 Bft) 93,62 %
18.09.2015 08:12 10,8 C 11,7 C 9,4 C 98 % 15 lf 1012,9 hPa 0,0 l/m 0 min 0 min 54 W/m 12,6 km/h (3 Bft) 97,87 %
18.09.2015 08:14 10,8 C 11,7 C 9,4 C 98 % 15 lf 1013,0 hPa 0,0 l/m 0 min 0 min 67 W/m 12,6 km/h (3 Bft) 95,74 %
18.09.2015 08:16 10,8 C 11,7 C 10,0 C 98 % 15 lf 1012,9 hPa 0,0 l/m 0 min 0 min 75 W/m 12,6 km/h (3 Bft) 100,00 %
18.09.2015 08:18 10,9 C 11,7 C 10,0 C 98 % 15 lf 1013,0 hPa 0,0 l/m 2 min 0 min 81 W/m 12,6 km/h (3 Bft) 100,00 %
18.09.2015 08:20 10,9 C 11,7 C 10,0 C 98 % 15 lf 1012,9 hPa 0,0 l/m 2 min 0 min 87 W/m 12,6 km/h (3 Bft) 95,74 %
18.09.2015 08:22 10,9 C 12,2 C 10,0 C 98 % 15 lf 1012,9 hPa 0,0 l/m 0 min 0 min 83 W/m 10,5 km/h (2 Bft) 100,00 %
18.09.2015 08:24 10,9 C 12,2 C 10,0 C 98 % 15 lf 1013,0 hPa 0,0 l/m 2 min 0 min 125 W/m 10,5 km/h (2 Bft) 100,00 %
18.09.2015 08:26 10,9 C 12,2 C 10,0 C 98 % 15 lf 1013,0 hPa 0,0 l/m 2 min 0 min 153 W/m 12,6 km/h (3 Bft) 100,00 %
18.09.2015 08:28 11,0 C 12,2 C 10,0 C 98 % 15 lf 1013,0 hPa 0,0 l/m 2 min 0 min 172 W/m 14,6 km/h (3 Bft) 100,00 %
18.09.2015 08:30 11,0 C 12,2 C 10,0 C 98 % 15 lf 1013,0 hPa 0,0 l/m 2 min 0 min 174 W/m 12,6 km/h (3 Bft) 100,00 %
18.09.2015 08:32 11,1 C 12,2 C 10,0 C 98 % 15 lf 1013,0 hPa 0,0 l/m 2 min 0 min 160 W/m 10,5 km/h (2 Bft) 100,00 %
18.09.2015 08:34 11,1 C 12,8 C 10,0 C 98 % 15 lf 1013,0 hPa 0,0 l/m 2 min 0 min 192 W/m 14,6 km/h (3 Bft) 100,00 %
18.09.2015 08:36 11,1 C 12,8 C 10,0 C 98 % 15 lf 1013,0 hPa 0,0 l/m 2 min 0 min 211 W/m 10,5 km/h (2 Bft) 100,00 %
18.09.2015 08:38 11,2 C 12,8 C 10,0 C 98 % 15 lf 1013,0 hPa 0,0 l/m 2 min 0 min 216 W/m 10,5 km/h (2 Bft) 100,00 %
18.09.2015 08:40 11,2 C 12,8 C 10,6 C 98 % 15 lf 1013,0 hPa 0,0 l/m 2 min 0 min 222 W/m 10,5 km/h (2 Bft) 97,83 %
18.09.2015 08:42 11,3 C 13,3 C 10,6 C 98 % 15 lf 1013,0 hPa 0,0 l/m 2 min 0 min 213 W/m 12,6 km/h (3 Bft) 97,87 %
18.09.2015 08:44 11,3 C 13,3 C 10,6 C 98 % 15 lf 1013,1 hPa 0,0 l/m 2 min 0 min 189 W/m 14,6 km/h (3 Bft) 95,74 %
18.09.2015 08:46 11,4 C 13,3 C 10,6 C 98 % 15 lf 1013,1 hPa 0,0 l/m 2 min 0 min 184 W/m 12,6 km/h (3 Bft) 97,87 %
18.09.2015 08:48 11,4 C 13,9 C 10,6 C 98 % 15 lf 1013,1 hPa 0,0 l/m 2 min 0 min 223 W/m 14,6 km/h (3 Bft) 97,87 %
18.09.2015 08:50 11,5 C 13,9 C 10,6 C 98 % 15 lf 1013,1 hPa 0,0 l/m 2 min 0 min 267 W/m 12,6 km/h (3 Bft) 97,87 %
18.09.2015 08:52 11,6 C 14,4 C 11,1 C 98 % 15 lf 1013,0 hPa 0,0 l/m 2 min 0 min 265 W/m 10,5 km/h (2 Bft) 95,65 %
18.09.2015 08:54 11,7 C 15,6 C 11,1 C 98 % 15 lf 1013,0 hPa 0,0 l/m 2 min 0 min 270 W/m 14,6 km/h (3 Bft) 91,49 %
18.09.2015 08:56 11,7 C 16,7 C 11,1 C 98 % 15 lf 1013,0 hPa 0,0 l/m 2 min 0 min 253 W/m 14,6 km/h (3 Bft) 93,62 %
18.09.2015 08:58 11,8 C 16,7 C 11,7 C 98 % 15 lf 1013,0 hPa 0,0 l/m 2 min 0 min 257 W/m 14,6 km/h (3 Bft) 93,62 %
18.09.2015 09:00 11,9 C 16,1 C 11,7 C 98 % 15 lf 1013,1 hPa 0,0 l/m 2 min 0 min 182 W/m 12,6 km/h (3 Bft) 89,36 %
18.09.2015 09:02 12,0 C 16,1 C 11,7 C 98 % 14 lf 1013,1 hPa 0,0 l/m 2 min 0 min 206 W/m 14,6 km/h (3 Bft) 95,65 %
18.09.2015 09:04 12,1 C 16,1 C 11,7 C 98 % 12 lf 1013,1 hPa 0,0 l/m 2 min 0 min 211 W/m 14,6 km/h (3 Bft) 93,62 %
18.09.2015 09:06 12,2 C 16,1 C 11,7 C 98 % 9 lf 1013,1 hPa 0,0 l/m 2 min 0 min 176 W/m 6,3 km/h (2 Bft) 97,87 %
18.09.2015 09:08 12,3 C 16,1 C 11,7 C 98 % 5 lf 1013,1 hPa 0,0 l/m 2 min 0 min 165 W/m 8,4 km/h (2 Bft) 95,74 %
18.09.2015 09:10 12,3 C 15,6 C 11,7 C 98 % 4 lf 1013,1 hPa 0,0 l/m 2 min 0 min 145 W/m 12,6 km/h (3 Bft) 95,74 %
18.09.2015 09:12 12,4 C 15,6 C 11,7 C 98 % 2 lf 1013,1 hPa 0,0 l/m 0 min 0 min 132 W/m 16,7 km/h (3 Bft) 95,74 %
18.09.2015 09:14 12,4 C 15,0 C 11,7 C 98 % 1 lf 1013,1 hPa 0,0 l/m 0 min 0 min 130 W/m 10,5 km/h (2 Bft) 91,30 %
18.09.2015 09:16 12,5 C 15,0 C 11,7 C 98 % 0 lf 1013,1 hPa 0,0 l/m 0 min 0 min 129 W/m 16,7 km/h (3 Bft) 93,62 %
18.09.2015 09:18 12,6 C 14,4 C 11,7 C 98 % 0 lf 1013,1 hPa 0,0 l/m 0 min 0 min 131 W/m 14,6 km/h (3 Bft) 95,74 %
18.09.2015 09:20 12,6 C 14,4 C 11,7 C 98 % 0 lf 1013,1 hPa 0,0 l/m 0 min 0 min 127 W/m 16,7 km/h (3 Bft) 89,36 %
18.09.2015 09:22 12,6 C 14,4 C 11,7 C 98 % 0 lf 1013,1 hPa 0,0 l/m 0 min 0 min 118 W/m 12,6 km/h (3 Bft) 93,62 %
18.09.2015 09:24 12,7 C 14,4 C 11,7 C 98 % 0 lf 1013,1 hPa 0,0 l/m 0 min 0 min 111 W/m 12,6 km/h (3 Bft) 89,36 %
18.09.2015 09:26 12,7 C 14,4 C 11,7 C 98 % 0 lf 1013,1 hPa 0,0 l/m 0 min 0 min 110 W/m 12,6 km/h (3 Bft) 89,13 %
18.09.2015 09:28 12,7 C 14,4 C 11,7 C 98 % 0 lf 1013,2 hPa 0,0 l/m 0 min 0 min 113 W/m 10,5 km/h (2 Bft) 91,49 %
18.09.2015 09:30 12,8 C 14,4 C 11,7 C 98 % 0 lf 1013,2 hPa 0,0 l/m 0 min 0 min 113 W/m 10,5 km/h (2 Bft) 93,62 %
18.09.2015 09:32 12,8 C 15,0 C 11,7 C 98 % 0 lf 1013,3 hPa 0,0 l/m 0 min 0 min 118 W/m 10,5 km/h (2 Bft) 95,74 %
18.09.2015 09:34 12,8 C 15,0 C 11,7 C 98 % 0 lf 1013,2 hPa 0,0 l/m 0 min 0 min 129 W/m 14,6 km/h (3 Bft) 93,62 %
18.09.2015 09:36 12,9 C 15,6 C 12,2 C 98 % 0 lf 1013,2 hPa 0,0 l/m 2 min 0 min 183 W/m 8,4 km/h (2 Bft) 95,74 %
18.09.2015 09:38 12,9 C 16,1 C 12,2 C 98 % 0 lf 1013,2 hPa 0,0 l/m 2 min 0 min 202 W/m 12,6 km/h (3 Bft) 93,48 %
18.09.2015 09:40 13,0 C 16,7 C 12,2 C 98 % 0 lf 1013,3 hPa 0,0 l/m 2 min 0 min 200 W/m 12,6 km/h (3 Bft) 91,49 %
18.09.2015 09:42 13,1 C 17,2 C 12,2 C 98 % 0 lf 1013,2 hPa 0,0 l/m 2 min 0 min 217 W/m 14,6 km/h (3 Bft) 93,62 %
18.09.2015 09:44 13,1 C 17,8 C 12,2 C 97 % 0 lf 1013,2 hPa 0,0 l/m 2 min 0 min 266 W/m 10,5 km/h (2 Bft) 97,87 %
18.09.2015 09:46 13,2 C 18,9 C 12,8 C 97 % 0 lf 1013,3 hPa 0,0 l/m 2 min 0 min 292 W/m 8,4 km/h (2 Bft) 95,74 %
18.09.2015 09:48 13,3 C 19,4 C 13,3 C 97 % 0 lf 1013,3 hPa 0,0 l/m 2 min 0 min 312 W/m 8,4 km/h (2 Bft) 93,48 %
18.09.2015 09:50 13,3 C 18,9 C 14,4 C 97 % 0 lf 1013,3 hPa 0,0 l/m 2 min 0 min 329 W/m 18,8 km/h (3 Bft) 95,74 %
18.09.2015 09:52 13,4 C 18,9 C 15,0 C 97 % 0 lf 1013,3 hPa 0,0 l/m 2 min 0 min 322 W/m 18,8 km/h (3 Bft) 93,62 %
18.09.2015 09:54 13,6 C 18,9 C 15,6 C 97 % 0 lf 1013,4 hPa 0,0 l/m 2 min 0 min 324 W/m 14,6 km/h (3 Bft) 95,74 %
18.09.2015 09:56 13,6 C 18,9 C 16,1 C 97 % 0 lf 1013,3 hPa 0,0 l/m 2 min 0 min 326 W/m 14,6 km/h (3 Bft) 93,62 %
18.09.2015 09:58 13,8 C 19,4 C 16,7 C 97 % 0 lf 1013,4 hPa 0,0 l/m 2 min 0 min 350 W/m 14,6 km/h (3 Bft) 95,74 %
18.09.2015 10:00 13,8 C 18,9 C 17,2 C 96 % 0 lf 1013,4 hPa 0,0 l/m 2 min 0 min 339 W/m 14,6 km/h (3 Bft) 93,48 %
18.09.2015 10:02 14,0 C 20,0 C 16,7 C 96 % 0 lf 1013,4 hPa 0,0 l/m 2 min 0 min 329 W/m 14,6 km/h (3 Bft) 95,74 %
18.09.2015 10:04 14,2 C 19,4 C 17,2 C 96 % 0 lf 1013,4 hPa 0,0 l/m 2 min 0 min 338 W/m 18,8 km/h (3 Bft) 97,87 %
18.09.2015 10:06 14,2 C 18,9 C 16,7 C 95 % 0 lf 1013,4 hPa 0,0 l/m 2 min 0 min 306 W/m 18,8 km/h (3 Bft) 89,36 %
18.09.2015 10:08 14,2 C 18,9 C 16,7 C 95 % 0 lf 1013,5 hPa 0,0 l/m 2 min 0 min 317 W/m 16,7 km/h (3 Bft) 95,74 %
18.09.2015 10:10 14,3 C 20,6 C 16,7 C 94 % 0 lf 1013,6 hPa 0,0 l/m 2 min 0 min 365 W/m 14,6 km/h (3 Bft) 93,62 %
18.09.2015 10:12 14,5 C 21,1 C 17,2 C 94 % 0 lf 1013,5 hPa 0,0 l/m 2 min 0 min 418 W/m 14,6 km/h (3 Bft) 97,83 %
18.09.2015 10:14 14,6 C 21,1 C 16,7 C 93 % 0 lf 1013,6 hPa 0,0 l/m 2 min 0 min 389 W/m 18,8 km/h (3 Bft) 97,87 %
18.09.2015 10:16 14,7 C 20,0 C 16,7 C 93 % 0 lf 1013,5 hPa 0,0 l/m 2 min 0 min 336 W/m 23,0 km/h (4 Bft) 97,87 %
18.09.2015 10:18 14,8 C 19,4 C 17,2 C 92 % 0 lf 1013,5 hPa 0,0 l/m 2 min 0 min 324 W/m 16,7 km/h (3 Bft) 97,87 %
18.09.2015 10:20 14,9 C 20,6 C 17,2 C 91 % 0 lf 1013,5 hPa 0,0 l/m 2 min 0 min 324 W/m 14,6 km/h (3 Bft) 97,87 %
18.09.2015 10:22 15,0 C 20,6 C 17,2 C 91 % 0 lf 1013,6 hPa 0,0 l/m 2 min 0 min 369 W/m 14,6 km/h (3 Bft) 100,00 %
18.09.2015 10:24 15,1 C 20,6 C 17,2 C 91 % 0 lf 1013,5 hPa 0,0 l/m 2 min 0 min 378 W/m 25,1 km/h (4 Bft) 91,30 %
18.09.2015 10:26 15,2 C 20,6 C 17,8 C 90 % 0 lf 1013,6 hPa 0,0 l/m 2 min 0 min 384 W/m 18,8 km/h (3 Bft) 93,62 %
18.09.2015 10:28 15,3 C 21,1 C 17,2 C 89 % 0 lf 1013,6 hPa 0,0 l/m 2 min 0 min 373 W/m 18,8 km/h (3 Bft) 97,87 %
18.09.2015 10:30 15,4 C 21,7 C 17,2 C 89 % 0 lf 1013,7 hPa 0,0 l/m 2 min 0 min 370 W/m 16,7 km/h (3 Bft) 97,87 %
18.09.2015 10:32 15,6 C 21,7 C 17,2 C 89 % 0 lf 1013,7 hPa 0,0 l/m 2 min 0 min 394 W/m 12,6 km/h (3 Bft) 100,00 %
18.09.2015 10:34 15,6 C 22,2 C 17,2 C 89 % 0 lf 1013,7 hPa 0,0 l/m 2 min 0 min 426 W/m 12,6 km/h (3 Bft) 97,87 %
18.09.2015 10:36 15,7 C 22,2 C 16,7 C 88 % 0 lf 1013,7 hPa 0,0 l/m 2 min 0 min 406 W/m 14,6 km/h (3 Bft) 100,00 %
18.09.2015 10:38 15,8 C 22,2 C 16,7 C 87 % 0 lf 1013,8 hPa 0,0 l/m 2 min 0 min 363 W/m 10,5 km/h (2 Bft) 100,00 %
18.09.2015 10:40 15,9 C 22,2 C 16,7 C 87 % 0 lf 1013,8 hPa 0,0 l/m 2 min 0 min 397 W/m 12,6 km/h (3 Bft) 100,00 %
18.09.2015 10:42 16,1 C 22,8 C 16,7 C 87 % 0 lf 1013,8 hPa 0,0 l/m 2 min 0 min 412 W/m 10,5 km/h (2 Bft) 97,87 %
18.09.2015 10:44 16,2 C 23,3 C 17,2 C 86 % 0 lf 1013,8 hPa 0,0 l/m 2 min 0 min 433 W/m 10,5 km/h (2 Bft) 97,87 %
18.09.2015 10:46 16,2 C 22,2 C 17,8 C 86 % 0 lf 1013,8 hPa 0,0 l/m 2 min 0 min 444 W/m 16,7 km/h (3 Bft) 100,00 %
18.09.2015 10:48 16,3 C 22,8 C 18,3 C 86 % 0 lf 1013,7 hPa 0,0 l/m 2 min 0 min 435 W/m 12,6 km/h (3 Bft) 100,00 %
18.09.2015 10:50 16,4 C 23,9 C 19,4 C 85 % 0 lf 1013,8 hPa 0,0 l/m 2 min 0 min 447 W/m 10,5 km/h (2 Bft) 97,87 %
18.09.2015 10:52 16,6 C 24,4 C 20,0 C 85 % 0 lf 1013,7 hPa 0,0 l/m 2 min 0 min 484 W/m 12,6 km/h (3 Bft) 100,00 %
18.09.2015 10:54 16,7 C 23,9 C 20,6 C 85 % 0 lf 1013,7 hPa 0,0 l/m 2 min 0 min 516 W/m 16,7 km/h (3 Bft) 100,00 %
18.09.2015 10:56 16,8 C 25,6 C 21,1 C 85 % 0 lf 1013,7 hPa 0,0 l/m 2 min 0 min 536 W/m 12,6 km/h (3 Bft) 97,87 %
18.09.2015 10:58 16,9 C 25,0 C 21,7 C 84 % 0 lf 1013,7 hPa 0,0 l/m 2 min 0 min 516 W/m 10,5 km/h (2 Bft) 100,00 %
18.09.2015 11:00 17,1 C 25,6 C 22,2 C 84 % 0 lf 1013,7 hPa 0,0 l/m 2 min 0 min 537 W/m 16,7 km/h (3 Bft) 100,00 %
18.09.2015 11:02 17,2 C 26,1 C 21,1 C 83 % 0 lf 1013,7 hPa 0,0 l/m 2 min 0 min 546 W/m 16,7 km/h (3 Bft) 100,00 %
18.09.2015 11:04 17,3 C 25,0 C 21,1 C 83 % 0 lf 1013,7 hPa 0,0 l/m 2 min 0 min 531 W/m 20,9 km/h (4 Bft) 97,87 %
18.09.2015 11:06 17,4 C 25,6 C 21,7 C 83 % 0 lf 1013,9 hPa 0,0 l/m 2 min 0 min 498 W/m 14,6 km/h (3 Bft) 100,00 %
18.09.2015 11:08 17,5 C 26,1 C 21,7 C 82 % 0 lf 1013,9 hPa 0,0 l/m 2 min 0 min 560 W/m 20,9 km/h (4 Bft) 100,00 %
18.09.2015 11:10 17,6 C 25,6 C 21,1 C 81 % 0 lf 1013,9 hPa 0,0 l/m 2 min 0 min 530 W/m 18,8 km/h (3 Bft) 97,83 %
18.09.2015 11:12 17,7 C 26,1 C 21,1 C 81 % 0 lf 1013,9 hPa 0,0 l/m 2 min 0 min 562 W/m 23,0 km/h (4 Bft) 100,00 %
18.09.2015 11:14 17,7 C 26,1 C 21,1 C 80 % 0 lf 1013,9 hPa 0,0 l/m 2 min 0 min 580 W/m 25,1 km/h (4 Bft) 100,00 %
18.09.2015 11:16 17,8 C 26,1 C 21,7 C 80 % 0 lf 1013,9 hPa 0,0 l/m 2 min 0 min 579 W/m 20,9 km/h (4 Bft) 95,74 %
18.09.2015 11:18 17,9 C 26,7 C 21,7 C 80 % 0 lf 1013,9 hPa 0,0 l/m 2 min 0 min 581 W/m 16,7 km/h (3 Bft) 100,00 %
18.09.2015 11:20 17,9 C 26,7 C 21,1 C 80 % 0 lf 1013,9 hPa 0,0 l/m 2 min 0 min 594 W/m 23,0 km/h (4 Bft) 100,00 %
18.09.2015 11:22 18,1 C 25,6 C 21,1 C 79 % 0 lf 1014,0 hPa 0,0 l/m 2 min 0 min 590 W/m 18,8 km/h (3 Bft) 100,00 %
18.09.2015 11:24 18,1 C 26,7 C 21,7 C 79 % 0 lf 1014,0 hPa 0,0 l/m 2 min 0 min 605 W/m 18,8 km/h (3 Bft) 100,00 %
18.09.2015 11:26 18,2 C 26,7 C 21,7 C 78 % 0 lf 1013,9 hPa 0,0 l/m 2 min 0 min 638 W/m 20,9 km/h (4 Bft) 97,87 %
18.09.2015 11:28 18,3 C 26,7 C 21,7 C 78 % 0 lf 1013,9 hPa 0,0 l/m 2 min 0 min 651 W/m 18,8 km/h (3 Bft) 100,00 %
18.09.2015 11:30 18,4 C 25,6 C 21,1 C 79 % 0 lf 1013,9 hPa 0,0 l/m 2 min 0 min 659 W/m 18,8 km/h (3 Bft) 97,87 %
18.09.2015 11:32 18,4 C 23,3 C 20,0 C 78 % 0 lf 1013,9 hPa 0,0 l/m 0 min 0 min 239 W/m 23,0 km/h (4 Bft) 93,62 %
18.09.2015 11:34 18,4 C 22,8 C 20,0 C 77 % 0 lf 1014,0 hPa 0,0 l/m 2 min 0 min 470 W/m 25,1 km/h (4 Bft) 100,00 %
18.09.2015 11:36 18,4 C 23,9 C 20,0 C 77 % 0 lf 1014,0 hPa 0,0 l/m 2 min 0 min 692 W/m 16,7 km/h (3 Bft) 97,87 %
18.09.2015 11:38 18,5 C 25,0 C 20,0 C 76 % 0 lf 1014,0 hPa 0,0 l/m 2 min 0 min 678 W/m 23,0 km/h (4 Bft) 97,87 %
18.09.2015 11:40 18,4 C 23,9 C 19,4 C 76 % 0 lf 1014,0 hPa 0,0 l/m 2 min 0 min 668 W/m 16,7 km/h (3 Bft) 95,74 %
18.09.2015 11:42 18,5 C 23,9 C 20,0 C 76 % 0 lf 1013,9 hPa 0,0 l/m 2 min 0 min 668 W/m 23,0 km/h (4 Bft) 95,74 %
18.09.2015 11:44 18,5 C 22,8 C 18,9 C 75 % 0 lf 1014,0 hPa 0,0 l/m 2 min 0 min 433 W/m 16,7 km/h (3 Bft) 95,74 %
18.09.2015 11:46 18,5 C 25,0 C 20,0 C 75 % 0 lf 1014,0 hPa 0,0 l/m 2 min 0 min 490 W/m 20,9 km/h (4 Bft) 93,48 %
18.09.2015 11:48 18,6 C 25,0 C 21,1 C 76 % 0 lf 1014,0 hPa 0,0 l/m 2 min 0 min 686 W/m 16,7 km/h (3 Bft) 95,74 %
18.09.2015 11:50 18,6 C 24,4 C 20,6 C 75 % 0 lf 1014,0 hPa 0,0 l/m 2 min 0 min 673 W/m 20,9 km/h (4 Bft) 93,62 %
18.09.2015 11:52 18,6 C 25,6 C 21,7 C 75 % 0 lf 1014,0 hPa 0,0 l/m 2 min 0 min 732 W/m 16,7 km/h (3 Bft) 91,49 %
18.09.2015 11:54 18,7 C 26,1 C 21,7 C 75 % 0 lf 1014,0 hPa 0,0 l/m 2 min 0 min 752 W/m 20,9 km/h (4 Bft) 91,49 %
18.09.2015 11:56 18,8 C 26,7 C 22,2 C 75 % 0 lf 1013,9 hPa 0,0 l/m 2 min 0 min 747 W/m 14,6 km/h (3 Bft) 91,49 %
18.09.2015 11:58 18,9 C 29,4 C 23,3 C 76 % 0 lf 1013,9 hPa 0,0 l/m 2 min 0 min 733 W/m 16,7 km/h (3 Bft) 93,48 %
18.09.2015 12:00 19,0 C 27,8 C 23,3 C 74 % 0 lf 1014,0 hPa 0,0 l/m 2 min 0 min 693 W/m 18,8 km/h (3 Bft) 91,49 %
18.09.2015 12:02 19,1 C 25,6 C 21,7 C 74 % 0 lf 1013,9 hPa 0,0 l/m 2 min 0 min 644 W/m 23,0 km/h (4 Bft) 95,74 %
18.09.2015 12:04 19,1 C 25,0 C 20,6 C 73 % 0 lf 1014,0 hPa 0,0 l/m 0 min 0 min 220 W/m 23,0 km/h (4 Bft) 93,62 %
18.09.2015 12:06 19,1 C 23,9 C 19,4 C 74 % 0 lf 1014,0 hPa 0,0 l/m 0 min 0 min 241 W/m 25,1 km/h (4 Bft) 91,49 %
18.09.2015 12:08 19,1 C 24,4 C 20,6 C 73 % 0 lf 1013,9 hPa 0,0 l/m 2 min 0 min 494 W/m 23,0 km/h (4 Bft) 93,62 %
18.09.2015 12:10 19,1 C 26,7 C 21,7 C 73 % 0 lf 1013,9 hPa 0,0 l/m 2 min 0 min 744 W/m 23,0 km/h (4 Bft) 91,49 %
18.09.2015 12:12 19,2 C 23,9 C 20,6 C 73 % 0 lf 1013,9 hPa 0,0 l/m 2 min 0 min 539 W/m 20,9 km/h (4 Bft) 93,62 %
18.09.2015 12:14 19,2 C 23,3 C 20,6 C 73 % 0 lf 1013,9 hPa 0,0 l/m 0 min 0 min 237 W/m 18,8 km/h (3 Bft) 93,62 %
18.09.2015 12:16 19,2 C 25,0 C 20,6 C 72 % 0 lf 1014,0 hPa 0,0 l/m 2 min 0 min 771 W/m 23,0 km/h (4 Bft) 93,48 %
18.09.2015 12:18 19,3 C 26,7 C 21,1 C 72 % 0 lf 1013,9 hPa 0,0 l/m 2 min 0 min 830 W/m 25,1 km/h (4 Bft) 93,62 %
18.09.2015 12:20 19,4 C 27,2 C 21,1 C 73 % 0 lf 1013,9 hPa 0,0 l/m 2 min 0 min 849 W/m 27,2 km/h (4 Bft) 91,49 %
18.09.2015 12:22 19,4 C 27,2 C 21,7 C 74 % 0 lf 1013,9 hPa 0,0 l/m 2 min 0 min 850 W/m 25,1 km/h (4 Bft) 95,74 %
18.09.2015 12:24 19,5 C 26,7 C 21,1 C 72 % 0 lf 1013,9 hPa 0,0 l/m 2 min 0 min 623 W/m 14,6 km/h (3 Bft) 97,87 %
18.09.2015 12:26 19,6 C 24,4 C 20,0 C 72 % 0 lf 1014,0 hPa 0,0 l/m 0 min 0 min 280 W/m 23,0 km/h (4 Bft) 93,48 %
18.09.2015 12:28 19,5 C 22,8 C 18,9 C 71 % 0 lf 1014,0 hPa 0,0 l/m 0 min 0 min 230 W/m 33,5 km/h (5 Bft) 95,74 %
18.09.2015 12:30 19,4 C 21,1 C 17,8 C 70 % 0 lf 1014,0 hPa 0,0 l/m 0 min 0 min 185 W/m 23,0 km/h (4 Bft) 97,87 %
18.09.2015 12:32 19,3 C 20,0 C 17,2 C 69 % 0 lf 1014,0 hPa 0,0 l/m 0 min 0 min 159 W/m 27,2 km/h (4 Bft) 95,74 %
18.09.2015 12:34 19,2 C 20,6 C 17,2 C 68 % 0 lf 1014,0 hPa 0,0 l/m 0 min 0 min 203 W/m 27,2 km/h (4 Bft) 95,74 %
18.09.2015 12:36 19,1 C 20,6 C 17,2 C 68 % 0 lf 1014,1 hPa 0,0 l/m 0 min 0 min 230 W/m 33,5 km/h (5 Bft) 100,00 %
18.09.2015 12:38 18,9 C 20,6 C 16,7 C 68 % 0 lf 1014,1 hPa 0,0 l/m 0 min 0 min 237 W/m 33,5 km/h (5 Bft) 100,00 %
18.09.2015 12:40 18,8 C 21,1 C 17,2 C 68 % 0 lf 1014,0 hPa 0,0 l/m 0 min 0 min 244 W/m 29,3 km/h (5 Bft) 95,74 %
18.09.2015 12:42 18,7 C 21,1 C 17,2 C 69 % 0 lf 1014,1 hPa 0,0 l/m 0 min 0 min 244 W/m 37,7 km/h (5 Bft) 95,74 %
18.09.2015 12:44 18,7 C 21,1 C 17,2 C 69 % 0 lf 1014,0 hPa 0,0 l/m 0 min 0 min 236 W/m 27,2 km/h (4 Bft) 97,87 %
18.09.2015 12:46 18,6 C 23,9 C 17,8 C 70 % 0 lf 1014,0 hPa 0,0 l/m 0 min 0 min 236 W/m 20,9 km/h (4 Bft) 95,74 %
18.09.2015 12:48 18,6 C 24,4 C 17,8 C 71 % 0 lf 1014,1 hPa 0,0 l/m 2 min 0 min 575 W/m 25,1 km/h (4 Bft) 97,87 %
18.09.2015 12:50 18,7 C 25,6 C 18,3 C 71 % 0 lf 1014,0 hPa 0,0 l/m 2 min 0 min 697 W/m 23,0 km/h (4 Bft) 97,83 %
18.09.2015 12:52 18,8 C 26,7 C 18,9 C 72 % 0 lf 1014,0 hPa 0,0 l/m 2 min 0 min 745 W/m 20,9 km/h (4 Bft) 95,74 %
18.09.2015 12:54 18,9 C 26,1 C 18,9 C 71 % 0 lf 1014,0 hPa 0,0 l/m 2 min 0 min 771 W/m 20,9 km/h (4 Bft) 97,87 %
18.09.2015 12:56 18,9 C 24,4 C 18,3 C 72 % 0 lf 1014,0 hPa 0,0 l/m 2 min 0 min 446 W/m 23,0 km/h (4 Bft) 97,87 %
18.09.2015 12:58 19,0 C 23,9 C 18,3 C 71 % 0 lf 1014,1 hPa 0,0 l/m 0 min 0 min 172 W/m 20,9 km/h (4 Bft) 97,87 %
18.09.2015 13:00 19,0 C 22,8 C 17,8 C 71 % 0 lf 1014,0 hPa 0,0 l/m 0 min 0 min 183 W/m 25,1 km/h (4 Bft) 97,87 %
18.09.2015 13:02 19,0 C 22,8 C 17,8 C 71 % 0 lf 1014,1 hPa 0,0 l/m 0 min 0 min 245 W/m 20,9 km/h (4 Bft) 97,83 %
18.09.2015 13:04 19,0 C 23,3 C 17,8 C 71 % 0 lf 1014,1 hPa 0,0 l/m 2 min 0 min 680 W/m 23,0 km/h (4 Bft) 97,87 %
18.09.2015 13:06 19,0 C 25,0 C 17,8 C 71 % 0 lf 1014,1 hPa 0,0 l/m 2 min 0 min 329 W/m 20,9 km/h (4 Bft) 97,87 %
18.09.2015 13:08 19,1 C 25,6 C 18,3 C 72 % 0 lf 1014,1 hPa 0,0 l/m 2 min 0 min 823 W/m 29,3 km/h (5 Bft) 95,74 %
18.09.2015 13:10 19,1 C 26,7 C 18,9 C 72 % 0 lf 1014,1 hPa 0,0 l/m 2 min 0 min 818 W/m 27,2 km/h (4 Bft) 97,87 %
18.09.2015 13:12 19,2 C 27,8 C 18,9 C 73 % 0 lf 1014,1 hPa 0,0 l/m 2 min 0 min 857 W/m 16,7 km/h (3 Bft) 97,87 %
18.09.2015 13:14 19,3 C 25,6 C 18,9 C 73 % 0 lf 1014,1 hPa 0,0 l/m 2 min 0 min 753 W/m 16,7 km/h (3 Bft) 95,65 %
18.09.2015 13:16 19,4 C 24,4 C 18,9 C 73 % 0 lf 1014,1 hPa 0,0 l/m 0 min 0 min 318 W/m 16,7 km/h (3 Bft) 95,74 %
18.09.2015 13:18 19,5 C 23,3 C 18,3 C 72 % 0 lf 1014,2 hPa 0,0 l/m 0 min 0 min 259 W/m 16,7 km/h (3 Bft) 97,87 %
18.09.2015 13:20 19,4 C 21,7 C 17,8 C 71 % 0 lf 1014,1 hPa 0,0 l/m 0 min 0 min 204 W/m 23,0 km/h (4 Bft) 97,87 %
18.09.2015 13:22 19,4 C 21,1 C 17,8 C 71 % 0 lf 1014,1 hPa 0,0 l/m 0 min 0 min 222 W/m 20,9 km/h (4 Bft) 97,87 %
18.09.2015 13:24 19,3 C 21,1 C 17,8 C 71 % 0 lf 1014,1 hPa 0,0 l/m 0 min 0 min 226 W/m 18,8 km/h (3 Bft) 97,87 %
18.09.2015 13:26 19,2 C 22,2 C 17,8 C 70 % 0 lf 1014,2 hPa 0,0 l/m 2 min 0 min 338 W/m 29,3 km/h (5 Bft) 93,48 %
18.09.2015 13:28 19,2 C 24,4 C 18,3 C 68 % 0 lf 1014,2 hPa 0,0 l/m 2 min 0 min 854 W/m 31,4 km/h (5 Bft) 97,87 %
18.09.2015 13:30 19,2 C 25,0 C 18,3 C 68 % 0 lf 1014,2 hPa 0,0 l/m 2 min 0 min 828 W/m 33,5 km/h (5 Bft) 95,74 %
18.09.2015 13:32 19,3 C 26,1 C 18,3 C 68 % 0 lf 1014,1 hPa 0,0 l/m 2 min 0 min 769 W/m 25,1 km/h (4 Bft) 97,87 %
18.09.2015 13:34 19,4 C 28,3 C 18,9 C 70 % 0 lf 1014,2 hPa 0,0 l/m 2 min 0 min 790 W/m 18,8 km/h (3 Bft) 97,87 %
18.09.2015 13:36 19,6 C 26,1 C 18,3 C 69 % 0 lf 1014,2 hPa 0,0 l/m 2 min 0 min 554 W/m 29,3 km/h (5 Bft) 93,48 %
18.09.2015 13:38 19,7 C 26,7 C 18,3 C 70 % 0 lf 1014,1 hPa 0,0 l/m 0 min 0 min 237 W/m 23,0 km/h (4 Bft) 97,87 %
18.09.2015 13:40 19,7 C 28,3 C 18,9 C 69 % 0 lf 1014,3 hPa 0,0 l/m 2 min 0 min 723 W/m 25,1 km/h (4 Bft) 100,00 %
18.09.2015 13:42 19,8 C 25,0 C 18,3 C 68 % 0 lf 1014,3 hPa 0,0 l/m 2 min 0 min 498 W/m 27,2 km/h (4 Bft) 97,87 %
18.09.2015 13:44 19,8 C 25,6 C 18,3 C 68 % 0 lf 1014,3 hPa 0,0 l/m 0 min 0 min 306 W/m 27,2 km/h (4 Bft) 100,00 %
18.09.2015 13:46 19,8 C 26,1 C 18,3 C 67 % 0 lf 1014,3 hPa 0,0 l/m 2 min 0 min 755 W/m 25,1 km/h (4 Bft) 100,00 %
18.09.2015 13:48 19,8 C 26,1 C 18,3 C 65 % 0 lf 1014,4 hPa 0,0 l/m 2 min 0 min 740 W/m 39,7 km/h (6 Bft) 97,87 %
18.09.2015 13:50 19,9 C 26,1 C 18,3 C 65 % 0 lf 1014,3 hPa 0,0 l/m 2 min 0 min 731 W/m 27,2 km/h (4 Bft) 95,65 %
18.09.2015 13:52 19,9 C 23,9 C 18,3 C 64 % 0 lf 1014,3 hPa 0,0 l/m 2 min 0 min 514 W/m 27,2 km/h (4 Bft) 100,00 %
18.09.2015 13:54 19,9 C 25,0 C 18,3 C 64 % 0 lf 1014,3 hPa 0,0 l/m 0 min 0 min 183 W/m 23,0 km/h (4 Bft) 95,74 %
18.09.2015 13:56 19,9 C 23,9 C 18,3 C 64 % 0 lf 1014,4 hPa 0,0 l/m 0 min 0 min 240 W/m 27,2 km/h (4 Bft) 97,87 %
18.09.2015 13:58 19,9 C 23,9 C 18,3 C 64 % 0 lf 1014,3 hPa 0,0 l/m 0 min 0 min 239 W/m 23,0 km/h (4 Bft) 100,00 %
18.09.2015 14:00 19,9 C 23,9 C 18,3 C 64 % 0 lf 1014,4 hPa 0,0 l/m 2 min 0 min 524 W/m 29,3 km/h (5 Bft) 97,83 %
18.09.2015 14:02 19,9 C 24,4 C 18,3 C 64 % 0 lf 1014,4 hPa 0,0 l/m 2 min 0 min 723 W/m 20,9 km/h (4 Bft) 97,87 %
18.09.2015 14:04 19,9 C 23,9 C 17,8 C 65 % 0 lf 1014,5 hPa 0,0 l/m 2 min 0 min 509 W/m 27,2 km/h (4 Bft) 97,87 %
18.09.2015 14:06 19,9 C 25,0 C 17,8 C 63 % 0 lf 1014,5 hPa 0,0 l/m 2 min 0 min 495 W/m 29,3 km/h (5 Bft) 95,74 %
18.09.2015 14:08 19,9 C 26,1 C 18,3 C 65 % 0 lf 1014,5 hPa 0,0 l/m 2 min 0 min 750 W/m 29,3 km/h (5 Bft) 97,87 %
18.09.2015 14:10 19,9 C 27,2 C 18,3 C 64 % 0 lf 1014,4 hPa 0,0 l/m 2 min 0 min 784 W/m 31,4 km/h (5 Bft) 97,87 %
18.09.2015 14:12 20,0 C 27,8 C 18,3 C 64 % 0 lf 1014,4 hPa 0,0 l/m 2 min 0 min 806 W/m 27,2 km/h (4 Bft) 100,00 %
18.09.2015 14:14 20,1 C 25,0 C 18,3 C 64 % 0 lf 1014,4 hPa 0,0 l/m 2 min 0 min 419 W/m 31,4 km/h (5 Bft) 97,87 %
18.09.2015 14:16 20,1 C 25,6 C 18,3 C 64 % 0 lf 1014,5 hPa 0,0 l/m 0 min 0 min 278 W/m 25,1 km/h (4 Bft) 97,87 %
18.09.2015 14:18 20,0 C 23,9 C 17,8 C 62 % 0 lf 1014,4 hPa 0,0 l/m 0 min 0 min 274 W/m 29,3 km/h (5 Bft) 95,74 %
18.09.2015 14:20 19,9 C 23,9 C 17,8 C 63 % 0 lf 1014,4 hPa 0,0 l/m 0 min 0 min 250 W/m 31,4 km/h (5 Bft) 97,87 %
18.09.2015 14:22 19,9 C 26,1 C 18,3 C 65 % 0 lf 1014,5 hPa 0,0 l/m 2 min 0 min 724 W/m 25,1 km/h (4 Bft) 95,74 %
18.09.2015 14:24 19,9 C 23,9 C 18,3 C 64 % 0 lf 1014,5 hPa 0,0 l/m 2 min 0 min 456 W/m 33,5 km/h (5 Bft) 97,83 %
18.09.2015 14:26 19,9 C 22,2 C 17,8 C 64 % 0 lf 1014,6 hPa 0,0 l/m 0 min 0 min 203 W/m 31,4 km/h (5 Bft) 100,00 %
18.09.2015 14:28 19,8 C 21,7 C 17,8 C 64 % 0 lf 1014,5 hPa 0,0 l/m 0 min 0 min 242 W/m 31,4 km/h (5 Bft) 95,74 %
18.09.2015 14:30 19,8 C 24,4 C 18,3 C 65 % 0 lf 1014,5 hPa 0,0 l/m 2 min 0 min 605 W/m 20,9 km/h (4 Bft) 95,74 %
18.09.2015 14:32 19,8 C 23,9 C 18,3 C 65 % 0 lf 1014,6 hPa 0,0 l/m 2 min 0 min 831 W/m 25,1 km/h (4 Bft) 93,62 %
18.09.2015 14:34 19,8 C 25,6 C 18,3 C 66 % 0 lf 1014,6 hPa 0,0 l/m 2 min 0 min 831 W/m 18,8 km/h (3 Bft) 95,74 %
18.09.2015 14:36 19,8 C 26,1 C 18,9 C 66 % 0 lf 1014,6 hPa 0,0 l/m 2 min 0 min 820 W/m 31,4 km/h (5 Bft) 93,48 %
18.09.2015 14:38 19,9 C 26,7 C 18,3 C 65 % 0 lf 1014,6 hPa 0,0 l/m 2 min 0 min 757 W/m 27,2 km/h (4 Bft) 95,74 %
18.09.2015 14:40 19,9 C 26,1 C 18,9 C 65 % 0 lf 1014,6 hPa 0,0 l/m 2 min 0 min 684 W/m 25,1 km/h (4 Bft) 95,74 %
18.09.2015 14:42 20,1 C 26,7 C 18,9 C 66 % 0 lf 1014,6 hPa 0,0 l/m 2 min 0 min 721 W/m 20,9 km/h (4 Bft) 95,74 %
18.09.2015 14:44 20,1 C 27,2 C 18,9 C 65 % 0 lf 1014,5 hPa 0,0 l/m 2 min 0 min 733 W/m 31,4 km/h (5 Bft) 95,74 %
18.09.2015 14:46 20,2 C 27,2 C 18,9 C 65 % 0 lf 1014,7 hPa 0,0 l/m 2 min 0 min 733 W/m 20,9 km/h (4 Bft) 89,36 %
18.09.2015 14:48 20,2 C 24,4 C 18,3 C 64 % 0 lf 1014,7 hPa 0,0 l/m 2 min 0 min 362 W/m 27,2 km/h (4 Bft) 95,65 %
18.09.2015 14:50 20,1 C 21,7 C 17,8 C 63 % 0 lf 1014,7 hPa 0,0 l/m 0 min 0 min 132 W/m 29,3 km/h (5 Bft) 95,74 %
18.09.2015 14:52 20,1 C 23,3 C 17,8 C 64 % 0 lf 1014,7 hPa 0,0 l/m 0 min 0 min 170 W/m 27,2 km/h (4 Bft) 95,74 %
18.09.2015 14:54 20,0 C 22,8 C 18,3 C 64 % 0 lf 1014,7 hPa 0,0 l/m 2 min 0 min 643 W/m 20,9 km/h (4 Bft) 97,87 %
18.09.2015 14:56 19,9 C 22,2 C 18,3 C 64 % 0 lf 1014,7 hPa 0,0 l/m 0 min 0 min 276 W/m 29,3 km/h (5 Bft) 89,36 %
18.09.2015 14:58 19,9 C 22,8 C 18,3 C 65 % 0 lf 1014,7 hPa 0,0 l/m 0 min 0 min 276 W/m 29,3 km/h (5 Bft) 93,48 %
18.09.2015 15:00 19,8 C 22,2 C 18,3 C 65 % 0 lf 1014,7 hPa 0,0 l/m 0 min 0 min 245 W/m 23,0 km/h (4 Bft) 95,74 %
18.09.2015 15:02 19,8 C 21,1 C 17,8 C 64 % 0 lf 1014,7 hPa 0,0 l/m 0 min 0 min 230 W/m 29,3 km/h (5 Bft) 95,74 %
18.09.2015 15:04 19,7 C 21,1 C 17,8 C 65 % 0 lf 1014,7 hPa 0,0 l/m 0 min 0 min 226 W/m 23,0 km/h (4 Bft) 91,49 %
18.09.2015 15:06 19,7 C 21,1 C 17,8 C 65 % 0 lf 1014,7 hPa 0,0 l/m 0 min 0 min 241 W/m 20,9 km/h (4 Bft) 95,74 %
18.09.2015 15:08 19,6 C 21,1 C 17,8 C 65 % 0 lf 1014,7 hPa 0,0 l/m 0 min 0 min 274 W/m 14,6 km/h (3 Bft) 95,74 %
18.09.2015 15:10 19,5 C 21,1 C 17,8 C 66 % 0 lf 1014,7 hPa 0,0 l/m 0 min 0 min 278 W/m 16,7 km/h (3 Bft) 95,65 %
18.09.2015 15:12 19,5 C 21,1 C 17,8 C 67 % 0 lf 1014,7 hPa 0,0 l/m 2 min 0 min 297 W/m 16,7 km/h (3 Bft) 97,87 %
18.09.2015 15:14 19,5 C 21,1 C 18,3 C 67 % 0 lf 1014,7 hPa 0,0 l/m 0 min 0 min 283 W/m 14,6 km/h (3 Bft) 95,74 %
18.09.2015 15:16 19,4 C 20,6 C 18,3 C 66 % 0 lf 1014,6 hPa 0,0 l/m 0 min 0 min 257 W/m 18,8 km/h (3 Bft) 97,87 %
18.09.2015 15:18 19,4 C 20,6 C 17,8 C 66 % 0 lf 1014,7 hPa 0,0 l/m 0 min 0 min 284 W/m 23,0 km/h (4 Bft) 97,87 %
18.09.2015 15:20 19,3 C 21,1 C 18,3 C 66 % 0 lf 1014,6 hPa 0,0 l/m 2 min 0 min 309 W/m 16,7 km/h (3 Bft) 97,87 %
18.09.2015 15:22 19,3 C 21,7 C 18,3 C 67 % 0 lf 1014,7 hPa 0,0 l/m 2 min 0 min 357 W/m 37,7 km/h (5 Bft) 97,83 %
18.09.2015 15:24 19,3 C 22,8 C 18,3 C 66 % 0 lf 1014,7 hPa 0,0 l/m 2 min 0 min 390 W/m 33,5 km/h (5 Bft) 97,87 %
18.09.2015 15:26 19,4 C 25,6 C 18,9 C 67 % 0 lf 1014,6 hPa 0,0 l/m 2 min 0 min 390 W/m 14,6 km/h (3 Bft) 95,74 %
18.09.2015 15:28 19,5 C 25,6 C 19,4 C 68 % 0 lf 1014,6 hPa 0,0 l/m 2 min 0 min 390 W/m 20,9 km/h (4 Bft) 93,62 %
18.09.2015 15:30 19,6 C 23,9 C 19,4 C 68 % 0 lf 1014,6 hPa 0,0 l/m 2 min 0 min 319 W/m 23,0 km/h (4 Bft) 97,87 %
18.09.2015 15:32 19,6 C 23,9 C 18,9 C 65 % 0 lf 1014,6 hPa 0,0 l/m 2 min 0 min 320 W/m 20,9 km/h (4 Bft) 97,87 %
18.09.2015 15:34 19,6 C 22,8 C 18,9 C 65 % 0 lf 1014,6 hPa 0,0 l/m 2 min 0 min 293 W/m 27,2 km/h (4 Bft) 97,83 %
18.09.2015 15:36 19,6 C 21,7 C 18,3 C 65 % 0 lf 1014,6 hPa 0,0 l/m 0 min 0 min 272 W/m 25,1 km/h (4 Bft) 93,62 %
18.09.2015 15:38 19,6 C 21,7 C 18,3 C 65 % 0 lf 1014,6 hPa 0,0 l/m 2 min 0 min 278 W/m 23,0 km/h (4 Bft) 95,74 %
18.09.2015 15:40 19,6 C 21,1 C 18,3 C 66 % 0 lf 1014,6 hPa 0,0 l/m 2 min 0 min 290 W/m 23,0 km/h (4 Bft) 93,62 %
18.09.2015 15:42 19,6 C 21,1 C 18,3 C 65 % 0 lf 1014,5 hPa 0,0 l/m 2 min 0 min 292 W/m 23,0 km/h (4 Bft) 93,62 %
18.09.2015 15:44 19,6 C 21,7 C 18,3 C 66 % 0 lf 1014,5 hPa 0,0 l/m 2 min 0 min 305 W/m 12,6 km/h (3 Bft) 95,74 %
18.09.2015 15:46 19,6 C 22,8 C 18,3 C 66 % 0 lf 1014,5 hPa 0,0 l/m 2 min 0 min 406 W/m 25,1 km/h (4 Bft) 97,83 %
18.09.2015 15:48 19,6 C 23,9 C 18,9 C 67 % 0 lf 1014,5 hPa 0,0 l/m 2 min 0 min 630 W/m 14,6 km/h (3 Bft) 93,62 %
18.09.2015 15:50 19,7 C 23,9 C 18,9 C 67 % 0 lf 1014,5 hPa 0,0 l/m 2 min 0 min 492 W/m 25,1 km/h (4 Bft) 95,74 %
18.09.2015 15:52 19,7 C 22,8 C 18,9 C 66 % 0 lf 1014,5 hPa 0,0 l/m 2 min 0 min 343 W/m 23,0 km/h (4 Bft) 97,87 %
18.09.2015 15:54 19,7 C 22,8 C 18,9 C 66 % 0 lf 1014,5 hPa 0,0 l/m 2 min 0 min 334 W/m 23,0 km/h (4 Bft) 97,87 %
18.09.2015 15:56 19,7 C 22,8 C 18,9 C 65 % 0 lf 1014,5 hPa 0,0 l/m 2 min 0 min 318 W/m 14,6 km/h (3 Bft) 95,74 %
18.09.2015 15:58 19,7 C 21,7 C 18,3 C 66 % 0 lf 1014,5 hPa 0,0 l/m 2 min 0 min 259 W/m 25,1 km/h (4 Bft) 97,83 %
18.09.2015 16:00 19,7 C 21,1 C 18,3 C 65 % 0 lf 1014,5 hPa 0,0 l/m 0 min 0 min 234 W/m 16,7 km/h (3 Bft) 95,74 %
18.09.2015 16:02 19,7 C 21,7 C 18,3 C 64 % 0 lf 1014,4 hPa 0,0 l/m 2 min 0 min 335 W/m 18,8 km/h (3 Bft) 97,87 %
18.09.2015 16:04 19,7 C 22,2 C 18,3 C 64 % 0 lf 1014,4 hPa 0,0 l/m 2 min 0 min 444 W/m 20,9 km/h (4 Bft) 95,74 %
18.09.2015 16:06 19,7 C 23,9 C 18,3 C 65 % 0 lf 1014,4 hPa 0,0 l/m 2 min 0 min 429 W/m 23,0 km/h (4 Bft) 89,36 %
18.09.2015 16:08 19,7 C 26,1 C 18,9 C 65 % 0 lf 1014,4 hPa 0,0 l/m 2 min 0 min 554 W/m 23,0 km/h (4 Bft) 93,48 %
18.09.2015 16:10 19,8 C 26,7 C 18,9 C 65 % 0 lf 1014,3 hPa 0,0 l/m 2 min 0 min 669 W/m 23,0 km/h (4 Bft) 97,87 %
18.09.2015 16:12 19,8 C 26,1 C 18,9 C 64 % 0 lf 1014,4 hPa 0,0 l/m 2 min 0 min 540 W/m 25,1 km/h (4 Bft) 93,62 %
18.09.2015 16:14 19,9 C 24,4 C 18,3 C 64 % 0 lf 1014,3 hPa 0,0 l/m 2 min 0 min 600 W/m 25,1 km/h (4 Bft) 91,49 %
18.09.2015 16:16 19,9 C 23,9 C 18,3 C 64 % 0 lf 1014,3 hPa 0,0 l/m 0 min 0 min 222 W/m 14,6 km/h (3 Bft) 95,74 %
18.09.2015 16:18 19,9 C 23,9 C 18,3 C 64 % 0 lf 1014,3 hPa 0,0 l/m 2 min 0 min 261 W/m 25,1 km/h (4 Bft) 95,74 %
18.09.2015 16:20 19,9 C 25,0 C 18,3 C 64 % 0 lf 1014,3 hPa 0,0 l/m 2 min 0 min 580 W/m 23,0 km/h (4 Bft) 93,48 %
18.09.2015 16:22 20,0 C 26,7 C 18,3 C 64 % 0 lf 1014,2 hPa 0,0 l/m 2 min 0 min 584 W/m 14,6 km/h (3 Bft) 93,62 %
18.09.2015 16:24 20,1 C 25,6 C 18,3 C 65 % 0 lf 1014,2 hPa 0,0 l/m 2 min 0 min 419 W/m 14,6 km/h (3 Bft) 95,74 %
18.09.2015 16:26 20,1 C 24,4 C 18,3 C 65 % 0 lf 1014,2 hPa 0,0 l/m 0 min 0 min 114 W/m 16,7 km/h (3 Bft) 95,74 %
18.09.2015 16:28 20,1 C 22,2 C 17,8 C 64 % 0 lf 1014,3 hPa 0,0 l/m 0 min 0 min 130 W/m 16,7 km/h (3 Bft) 95,74 %
18.09.2015 16:30 20,1 C 20,6 C 17,2 C 63 % 0 lf 1014,3 hPa 0,0 l/m 0 min 0 min 108 W/m 27,2 km/h (4 Bft) 95,74 %
18.09.2015 16:32 19,9 C 20,0 C 17,2 C 63 % 0 lf 1014,3 hPa 0,0 l/m 0 min 0 min 103 W/m 18,8 km/h (3 Bft) 95,65 %
18.09.2015 16:34 19,8 C 19,4 C 17,2 C 64 % 0 lf 1014,3 hPa 0,0 l/m 0 min 0 min 102 W/m 23,0 km/h (4 Bft) 91,49 %
18.09.2015 16:36 19,7 C 19,4 C 17,2 C 64 % 0 lf 1014,3 hPa 0,0 l/m 0 min 0 min 104 W/m 27,2 km/h (4 Bft) 95,74 %
18.09.2015 16:38 19,6 C 19,4 C 17,2 C 64 % 0 lf 1014,3 hPa 0,0 l/m 0 min 0 min 134 W/m 29,3 km/h (5 Bft) 95,74 %
18.09.2015 16:40 19,5 C 19,4 C 17,2 C 65 % 0 lf 1014,3 hPa 0,0 l/m 0 min 0 min 150 W/m 16,7 km/h (3 Bft) 95,74 %
18.09.2015 16:42 19,4 C 19,4 C 17,2 C 65 % 0 lf 1014,3 hPa 0,0 l/m 0 min 0 min 175 W/m 14,6 km/h (3 Bft) 97,87 %
18.09.2015 16:44 19,4 C 20,0 C 17,2 C 65 % 0 lf 1014,3 hPa 0,0 l/m 0 min 0 min 209 W/m 14,6 km/h (3 Bft) 97,83 %
18.09.2015 16:46 19,3 C 20,6 C 17,2 C 66 % 0 lf 1014,3 hPa 0,0 l/m 2 min 0 min 290 W/m 18,8 km/h (3 Bft) 97,87 %
18.09.2015 16:48 19,3 C 20,6 C 17,8 C 66 % 0 lf 1014,3 hPa 0,0 l/m 0 min 0 min 194 W/m 12,6 km/h (3 Bft) 97,87 %
18.09.2015 16:50 19,3 C 20,0 C 17,2 C 66 % 0 lf 1014,3 hPa 0,0 l/m 0 min 0 min 149 W/m 12,6 km/h (3 Bft) 95,74 %
18.09.2015 16:52 19,3 C 19,4 C 17,2 C 66 % 0 lf 1014,3 hPa 0,0 l/m 0 min 0 min 128 W/m 10,5 km/h (2 Bft) 95,74 %
18.09.2015 16:54 19,2 C 19,4 C 17,2 C 66 % 0 lf 1014,2 hPa 0,0 l/m 0 min 0 min 126 W/m 10,5 km/h (2 Bft) 97,87 %
18.09.2015 16:56 19,2 C 19,4 C 17,2 C 67 % 0 lf 1014,2 hPa 0,0 l/m 0 min 0 min 133 W/m 10,5 km/h (2 Bft) 97,83 %
18.09.2015 16:58 19,2 C 19,4 C 17,2 C 67 % 0 lf 1014,2 hPa 0,0 l/m 0 min 0 min 138 W/m 12,6 km/h (3 Bft) 100,00 %
18.09.2015 17:00 19,2 C 19,4 C 17,2 C 67 % 0 lf 1014,2 hPa 0,0 l/m 0 min 0 min 146 W/m 14,6 km/h (3 Bft) 97,87 %
18.09.2015 17:02 19,1 C 20,0 C 17,2 C 67 % 0 lf 1014,2 hPa 0,0 l/m 2 min 0 min 207 W/m 14,6 km/h (3 Bft) 97,87 %
18.09.2015 17:04 19,1 C 21,7 C 17,8 C 68 % 0 lf 1014,2 hPa 0,0 l/m 2 min 0 min 228 W/m 10,5 km/h (2 Bft) 97,87 %
18.09.2015 17:06 19,2 C 21,7 C 17,8 C 68 % 0 lf 1014,2 hPa 0,0 l/m 2 min 0 min 272 W/m 20,9 km/h (4 Bft) 97,87 %
18.09.2015 17:08 19,2 C 22,2 C 17,8 C 67 % 0 lf 1014,2 hPa 0,0 l/m 2 min 0 min 250 W/m 16,7 km/h (3 Bft) 97,83 %
18.09.2015 17:10 19,2 C 22,2 C 17,8 C 66 % 0 lf 1014,2 hPa 0,0 l/m 2 min 0 min 269 W/m 14,6 km/h (3 Bft) 97,87 %
18.09.2015 17:12 19,2 C 22,8 C 17,8 C 66 % 0 lf 1014,2 hPa 0,0 l/m 2 min 0 min 338 W/m 10,5 km/h (2 Bft) 97,87 %
18.09.2015 17:14 19,2 C 22,8 C 17,8 C 66 % 0 lf 1014,2 hPa 0,0 l/m 2 min 0 min 263 W/m 23,0 km/h (4 Bft) 95,74 %
18.09.2015 17:16 19,3 C 23,3 C 17,8 C 66 % 0 lf 1014,2 hPa 0,0 l/m 2 min 0 min 401 W/m 16,7 km/h (3 Bft) 95,74 %
18.09.2015 17:18 19,3 C 22,2 C 17,8 C 66 % 0 lf 1014,2 hPa 0,0 l/m 2 min 0 min 324 W/m 20,9 km/h (4 Bft) 95,74 %
18.09.2015 17:20 19,3 C 21,7 C 17,8 C 65 % 0 lf 1014,2 hPa 0,0 l/m 0 min 0 min 169 W/m 16,7 km/h (3 Bft) 97,83 %
18.09.2015 17:22 19,3 C 21,1 C 17,2 C 65 % 0 lf 1014,2 hPa 0,0 l/m 0 min 0 min 151 W/m 20,9 km/h (4 Bft) 95,74 %
18.09.2015 17:24 19,3 C 20,0 C 17,2 C 65 % 0 lf 1014,3 hPa 0,0 l/m 0 min 0 min 141 W/m 18,8 km/h (3 Bft) 93,62 %
18.09.2015 17:26 19,3 C 20,0 C 17,2 C 65 % 0 lf 1014,2 hPa 0,0 l/m 0 min 0 min 137 W/m 16,7 km/h (3 Bft) 95,74 %
18.09.2015 17:28 19,3 C 19,4 C 17,2 C 65 % 0 lf 1014,3 hPa 0,0 l/m 0 min 0 min 134 W/m 18,8 km/h (3 Bft) 97,87 %
18.09.2015 17:30 19,2 C 19,4 C 17,2 C 65 % 0 lf 1014,2 hPa 0,0 l/m 0 min 0 min 129 W/m 14,6 km/h (3 Bft) 93,48 %
18.09.2015 17:32 19,2 C 19,4 C 17,2 C 66 % 0 lf 1014,2 hPa 0,0 l/m 0 min 0 min 131 W/m 14,6 km/h (3 Bft) 97,87 %
18.09.2015 17:34 19,2 C 19,4 C 17,2 C 66 % 0 lf 1014,3 hPa 0,0 l/m 0 min 0 min 137 W/m 18,8 km/h (3 Bft) 95,74 %
18.09.2015 17:36 19,1 C 19,4 C 17,2 C 66 % 0 lf 1014,3 hPa 0,0 l/m 0 min 0 min 139 W/m 12,6 km/h (3 Bft) 95,74 %
18.09.2015 17:38 19,1 C 19,4 C 17,2 C 66 % 0 lf 1014,3 hPa 0,0 l/m 0 min 0 min 135 W/m 23,0 km/h (4 Bft) 97,87 %
18.09.2015 17:40 19,1 C 19,4 C 17,2 C 66 % 0 lf 1014,3 hPa 0,0 l/m 0 min 0 min 138 W/m 14,6 km/h (3 Bft) 95,74 %
18.09.2015 17:42 19,0 C 19,4 C 17,2 C 66 % 0 lf 1014,3 hPa 0,0 l/m 0 min 0 min 133 W/m 16,7 km/h (3 Bft) 95,65 %
18.09.2015 17:44 19,0 C 19,4 C 17,2 C 67 % 0 lf 1014,3 hPa 0,0 l/m 0 min 0 min 121 W/m 14,6 km/h (3 Bft) 97,87 %
18.09.2015 17:46 19,0 C 19,4 C 17,2 C 67 % 0 lf 1014,2 hPa 0,0 l/m 0 min 0 min 111 W/m 14,6 km/h (3 Bft) 97,87 %
18.09.2015 17:48 18,9 C 18,9 C 17,2 C 67 % 0 lf 1014,3 hPa 0,0 l/m 0 min 0 min 107 W/m 16,7 km/h (3 Bft) 97,87 %
18.09.2015 17:50 18,9 C 19,4 C 17,2 C 67 % 0 lf 1014,3 hPa 0,0 l/m 0 min 0 min 109 W/m 14,6 km/h (3 Bft) 95,74 %
18.09.2015 17:52 18,9 C 18,9 C 17,2 C 67 % 0 lf 1014,3 hPa 0,0 l/m 0 min 0 min 109 W/m 16,7 km/h (3 Bft) 97,87 %
18.09.2015 17:54 18,9 C 18,9 C 17,2 C 67 % 0 lf 1014,3 hPa 0,0 l/m 0 min 0 min 111 W/m 14,6 km/h (3 Bft) 97,83 %
18.09.2015 17:56 18,8 C 18,9 C 17,2 C 67 % 0 lf 1014,4 hPa 0,0 l/m 0 min 0 min 109 W/m 10,5 km/h (2 Bft) 95,74 %
18.09.2015 17:58 18,8 C 18,9 C 17,2 C 68 % 0 lf 1014,3 hPa 0,0 l/m 0 min 0 min 104 W/m 16,7 km/h (3 Bft) 100,00 %
18.09.2015 18:00 18,8 C 18,9 C 17,2 C 67 % 0 lf 1014,3 hPa 0,0 l/m 0 min 0 min 97 W/m 16,7 km/h (3 Bft) 97,87 %
18.09.2015 18:02 18,8 C 18,9 C 16,7 C 67 % 0 lf 1014,4 hPa 0,0 l/m 0 min 0 min 92 W/m 12,6 km/h (3 Bft) 100,00 %
18.09.2015 18:04 18,7 C 18,9 C 16,7 C 67 % 0 lf 1014,4 hPa 0,0 l/m 0 min 0 min 91 W/m 10,5 km/h (2 Bft) 95,74 %
18.09.2015 18:06 18,7 C 18,9 C 16,7 C 67 % 0 lf 1014,3 hPa 0,0 l/m 0 min 0 min 89 W/m 16,7 km/h (3 Bft) 100,00 %
18.09.2015 18:08 18,7 C 18,9 C 16,7 C 67 % 0 lf 1014,4 hPa 0,0 l/m 0 min 0 min 86 W/m 10,5 km/h (2 Bft) 97,87 %
18.09.2015 18:10 18,7 C 18,9 C 16,7 C 68 % 0 lf 1014,4 hPa 0,0 l/m 0 min 0 min 83 W/m 8,4 km/h (2 Bft) 97,87 %
18.09.2015 18:12 18,7 C 18,9 C 16,7 C 68 % 0 lf 1014,3 hPa 0,0 l/m 0 min 0 min 80 W/m 14,6 km/h (3 Bft) 95,74 %
18.09.2015 18:14 18,6 C 18,9 C 16,7 C 68 % 0 lf 1014,3 hPa 0,0 l/m 0 min 0 min 78 W/m 14,6 km/h (3 Bft) 95,74 %
18.09.2015 18:16 18,6 C 18,9 C 16,7 C 69 % 0 lf 1014,4 hPa 0,0 l/m 0 min 0 min 75 W/m 10,5 km/h (2 Bft) 95,74 %
18.09.2015 18:18 18,6 C 18,3 C 16,7 C 68 % 0 lf 1014,3 hPa 0,0 l/m 0 min 0 min 71 W/m 14,6 km/h (3 Bft) 97,83 %
18.09.2015 18:20 18,5 C 18,3 C 16,7 C 68 % 0 lf 1014,3 hPa 0,0 l/m 0 min 0 min 67 W/m 14,6 km/h (3 Bft) 97,87 %
18.09.2015 18:22 18,5 C 18,3 C 16,7 C 68 % 0 lf 1014,3 hPa 0,0 l/m 0 min 0 min 62 W/m 8,4 km/h (2 Bft) 100,00 %
18.09.2015 18:24 18,5 C 18,3 C 16,7 C 69 % 0 lf 1014,3 hPa 0,0 l/m 0 min 0 min 57 W/m 8,4 km/h (2 Bft) 97,87 %
18.09.2015 18:26 18,4 C 18,3 C 16,7 C 69 % 0 lf 1014,4 hPa 0,0 l/m 0 min 0 min 53 W/m 12,6 km/h (3 Bft) 95,74 %
18.09.2015 18:28 18,4 C 18,3 C 16,7 C 69 % 0 lf 1014,4 hPa 0,0 l/m 0 min 0 min 48 W/m 14,6 km/h (3 Bft) 95,74 %
18.09.2015 18:30 18,4 C 18,3 C 16,1 C 69 % 0 lf 1014,4 hPa 0,0 l/m 0 min 0 min 42 W/m 12,6 km/h (3 Bft) 95,65 %
18.09.2015 18:32 18,3 C 18,3 C 16,1 C 69 % 0 lf 1014,5 hPa 0,0 l/m 0 min 0 min 40 W/m 10,5 km/h (2 Bft) 95,74 %
18.09.2015 18:34 18,3 C 18,3 C 16,1 C 69 % 0 lf 1014,5 hPa 0,0 l/m 0 min 0 min 37 W/m 14,6 km/h (3 Bft) 93,62 %
18.09.2015 18:36 18,3 C 17,8 C 16,1 C 69 % 0 lf 1014,5 hPa 0,0 l/m 0 min 0 min 39 W/m 14,6 km/h (3 Bft) 95,74 %
18.09.2015 18:38 18,2 C 17,8 C 16,1 C 69 % 0 lf 1014,5 hPa 0,0 l/m 0 min 0 min 44 W/m 14,6 km/h (3 Bft) 93,62 %
18.09.2015 18:40 18,2 C 17,8 C 16,1 C 69 % 0 lf 1014,5 hPa 0,0 l/m 0 min 0 min 48 W/m 8,4 km/h (2 Bft) 93,48 %
18.09.2015 18:42 18,2 C 17,8 C 16,1 C 69 % 0 lf 1014,5 hPa 0,0 l/m 0 min 0 min 54 W/m 12,6 km/h (3 Bft) 95,74 %
18.09.2015 18:44 18,2 C 17,8 C 16,1 C 69 % 0 lf 1014,5 hPa 0,0 l/m 0 min 0 min 59 W/m 10,5 km/h (2 Bft) 93,62 %
18.09.2015 18:46 18,1 C 18,3 C 16,1 C 69 % 0 lf 1014,5 hPa 0,0 l/m 0 min 0 min 64 W/m 14,6 km/h (3 Bft) 93,62 %
18.09.2015 18:48 18,1 C 18,3 C 16,1 C 69 % 1 lf 1014,5 hPa 0,0 l/m 2 min 0 min 68 W/m 12,6 km/h (3 Bft) 93,62 %
18.09.2015 18:50 18,1 C 18,3 C 16,1 C 70 % 0 lf 1014,5 hPa 0,0 l/m 0 min 0 min 61 W/m 12,6 km/h (3 Bft) 95,74 %
18.09.2015 18:52 18,1 C 18,3 C 16,1 C 70 % 0 lf 1014,6 hPa 0,0 l/m 0 min 0 min 53 W/m 12,6 km/h (3 Bft) 95,65 %
18.09.2015 18:54 18,1 C 17,8 C 16,1 C 70 % 0 lf 1014,5 hPa 0,2 l/m 0 min 0 min 48 W/m 14,6 km/h (3 Bft) 91,49 %
18.09.2015 18:56 18,0 C 17,8 C 16,1 C 70 % 0 lf 1014,6 hPa 0,0 l/m 0 min 0 min 47 W/m 10,5 km/h (2 Bft) 93,62 %
18.09.2015 18:58 18,0 C 17,8 C 16,1 C 70 % 0 lf 1014,6 hPa 0,0 l/m 0 min 0 min 52 W/m 10,5 km/h (2 Bft) 95,74 %
18.09.2015 19:00 17,9 C 17,8 C 16,1 C 70 % 0 lf 1014,6 hPa 0,0 l/m 2 min 0 min 50 W/m 10,5 km/h (2 Bft) 95,74 %
18.09.2015 19:02 17,9 C 17,8 C 16,1 C 70 % 0 lf 1014,6 hPa 0,0 l/m 0 min 0 min 44 W/m 12,6 km/h (3 Bft) 95,74 %
18.09.2015 19:04 17,9 C 17,8 C 16,1 C 70 % 0 lf 1014,7 hPa 0,0 l/m 0 min 0 min 38 W/m 8,4 km/h (2 Bft) 95,65 %
18.09.2015 19:06 17,9 C 17,8 C 16,1 C 70 % 0 lf 1014,7 hPa 0,0 l/m 0 min 0 min 32 W/m 10,5 km/h (2 Bft) 97,87 %
18.09.2015 19:08 17,9 C 17,8 C 16,1 C 71 % 0 lf 1014,7 hPa 0,0 l/m 0 min 0 min 30 W/m 10,5 km/h (2 Bft) 97,87 %
18.09.2015 19:10 17,9 C 17,8 C 16,1 C 71 % 0 lf 1014,7 hPa 0,0 l/m 0 min 0 min 30 W/m 14,6 km/h (3 Bft) 97,87 %
18.09.2015 19:12 17,8 C 17,8 C 16,1 C 71 % 0 lf 1014,7 hPa 0,0 l/m 0 min 0 min 28 W/m 14,6 km/h (3 Bft) 95,74 %
18.09.2015 19:14 17,8 C 17,8 C 15,6 C 71 % 0 lf 1014,7 hPa 0,0 l/m 0 min 0 min 26 W/m 12,6 km/h (3 Bft) 97,87 %
18.09.2015 19:16 17,8 C 17,8 C 15,6 C 71 % 0 lf 1014,6 hPa 0,0 l/m 0 min 0 min 26 W/m 8,4 km/h (2 Bft) 97,83 %
18.09.2015 19:18 17,8 C 17,2 C 15,6 C 71 % 0 lf 1014,7 hPa 0,0 l/m 0 min 0 min 25 W/m 10,5 km/h (2 Bft) 97,87 %
18.09.2015 19:20 17,7 C 17,2 C 15,6 C 71 % 0 lf 1014,7 hPa 0,0 l/m 0 min 0 min 21 W/m 8,4 km/h (2 Bft) 95,74 %
18.09.2015 19:22 17,7 C 17,2 C 15,6 C 71 % 0 lf 1014,8 hPa 0,0 l/m 0 min 0 min 17 W/m 8,4 km/h (2 Bft) 95,74 %
18.09.2015 19:24 17,7 C 17,2 C 15,6 C 71 % 0 lf 1014,7 hPa 0,0 l/m 0 min 0 min 15 W/m 14,6 km/h (3 Bft) 97,87 %
18.09.2015 19:26 17,7 C 17,2 C 15,0 C 71 % 0 lf 1014,7 hPa 0,0 l/m 0 min 0 min 12 W/m 10,5 km/h (2 Bft) 97,87 %
18.09.2015 19:28 17,6 C 16,7 C 15,0 C 71 % 0 lf 1014,7 hPa 0,0 l/m 0 min 0 min 11 W/m 8,4 km/h (2 Bft) 97,83 %
18.09.2015 19:30 17,6 C 16,7 C 15,0 C 71 % 0 lf 1014,8 hPa 0,0 l/m 0 min 0 min 10 W/m 12,6 km/h (3 Bft) 95,74 %
18.09.2015 19:32 17,6 C 16,7 C 15,0 C 71 % 0 lf 1014,8 hPa 0,0 l/m 0 min 0 min 9 W/m 8,4 km/h (2 Bft) 97,87 %
18.09.2015 19:34 17,5 C 16,7 C 15,0 C 71 % 0 lf 1014,9 hPa 0,0 l/m 0 min 0 min 7 W/m 10,5 km/h (2 Bft) 95,74 %
18.09.2015 19:36 17,5 C 16,7 C 15,0 C 72 % 0 lf 1014,9 hPa 0,0 l/m 0 min 0 min 6 W/m 8,4 km/h (2 Bft) 97,87 %
18.09.2015 19:38 17,4 C 16,7 C 15,0 C 71 % 0 lf 1014,9 hPa 0,0 l/m 0 min 0 min 5 W/m 10,5 km/h (2 Bft) 97,87 %
18.09.2015 19:40 17,4 C 16,7 C 15,0 C 71 % 0 lf 1014,9 hPa 0,0 l/m 0 min 0 min 5 W/m 8,4 km/h (2 Bft) 97,83 %
18.09.2015 19:42 17,4 C 16,7 C 15,0 C 71 % 0 lf 1014,9 hPa 0,0 l/m 0 min 0 min 1 W/m 10,5 km/h (2 Bft) 97,87 %
18.09.2015 19:44 17,3 C 16,7 C 15,0 C 71 % 0 lf 1014,9 hPa 0,0 l/m 0 min 0 min 0 W/m 10,5 km/h (2 Bft) 95,74 %
18.09.2015 19:46 17,3 C 16,7 C 15,0 C 71 % 0 lf 1014,9 hPa 0,0 l/m 0 min 0 min 0 W/m 8,4 km/h (2 Bft) 97,87 %
18.09.2015 19:48 17,3 C 16,7 C 15,0 C 72 % 0 lf 1014,9 hPa 0,0 l/m 0 min 0 min 0 W/m 8,4 km/h (2 Bft) 97,87 %
18.09.2015 19:50 17,3 C 16,7 C 15,0 C 72 % 0 lf 1015,0 hPa 0,0 l/m 0 min 0 min 0 W/m 10,5 km/h (2 Bft) 97,87 %
18.09.2015 19:52 17,2 C 16,7 C 15,0 C 72 % 0 lf 1015,0 hPa 0,0 l/m 0 min 0 min 0 W/m 6,3 km/h (2 Bft) 91,30 %
18.09.2015 19:54 17,2 C 16,7 C 15,0 C 73 % 0 lf 1015,0 hPa 0,0 l/m 0 min 0 min 0 W/m 8,4 km/h (2 Bft) 95,74 %
18.09.2015 19:56 17,2 C 16,7 C 15,0 C 73 % 0 lf 1015,0 hPa 0,0 l/m 0 min 0 min 0 W/m 8,4 km/h (2 Bft) 95,74 %
18.09.2015 19:58 17,2 C 16,7 C 15,0 C 73 % 0 lf 1015,1 hPa 0,0 l/m 0 min 0 min 0 W/m 10,5 km/h (2 Bft) 91,49 %
18.09.2015 20:00 17,1 C 16,7 C 15,0 C 73 % 0 lf 1015,1 hPa 0,0 l/m 0 min 0 min 0 W/m 10,5 km/h (2 Bft) 97,87 %
18.09.2015 20:02 17,1 C 16,7 C 15,0 C 73 % 0 lf 1015,1 hPa 0,0 l/m 0 min 0 min 0 W/m 8,4 km/h (2 Bft) 93,48 %
18.09.2015 20:04 17,1 C 16,7 C 15,0 C 73 % 0 lf 1015,1 hPa 0,0 l/m 0 min 2 min 0 W/m 8,4 km/h (2 Bft) 93,62 %
18.09.2015 20:06 17,1 C 16,7 C 14,4 C 74 % 0 lf 1015,1 hPa 0,0 l/m 0 min 2 min 0 W/m 10,5 km/h (2 Bft) 97,87 %
18.09.2015 20:08 17,1 C 16,1 C 14,4 C 74 % 1 lf 1015,2 hPa 0,0 l/m 0 min 2 min 0 W/m 4,2 km/h (1 Bft) 95,74 %
18.09.2015 20:10 17,1 C 16,1 C 13,9 C 74 % 0 lf 1015,3 hPa 0,0 l/m 0 min 2 min 0 W/m 6,3 km/h (2 Bft) 97,87 %
18.09.2015 20:12 17,0 C 15,6 C 13,9 C 75 % 0 lf 1015,3 hPa 0,0 l/m 0 min 2 min 0 W/m 8,4 km/h (2 Bft) 95,74 %
18.09.2015 20:14 17,0 C 15,6 C 13,9 C 75 % 0 lf 1015,3 hPa 0,0 l/m 0 min 0 min 0 W/m 6,3 km/h (2 Bft) 97,83 %
18.09.2015 20:16 17,0 C 15,6 C 13,9 C 75 % 0 lf 1015,3 hPa 0,0 l/m 0 min 0 min 0 W/m 6,3 km/h (2 Bft) 95,74 %
18.09.2015 20:18 16,9 C 15,6 C 13,3 C 76 % 0 lf 1015,3 hPa 0,0 l/m 0 min 0 min 0 W/m 10,5 km/h (2 Bft) 95,74 %
18.09.2015 20:20 16,9 C 15,6 C 13,3 C 76 % 0 lf 1015,4 hPa 0,0 l/m 0 min 0 min 0 W/m 6,3 km/h (2 Bft) 95,74 %
18.09.2015 20:22 16,9 C 15,6 C 13,3 C 76 % 0 lf 1015,4 hPa 0,0 l/m 0 min 0 min 0 W/m 6,3 km/h (2 Bft) 93,62 %
18.09.2015 20:24 16,9 C 15,6 C 13,9 C 76 % 1 lf 1015,5 hPa 0,0 l/m 0 min 0 min 0 W/m 6,3 km/h (2 Bft) 95,74 %
18.09.2015 20:26 16,9 C 15,6 C 13,9 C 76 % 1 lf 1015,5 hPa 0,0 l/m 0 min 2 min 0 W/m 8,4 km/h (2 Bft) 93,48 %
18.09.2015 20:28 16,8 C 15,6 C 13,9 C 77 % 0 lf 1015,5 hPa 0,0 l/m 0 min 0 min 0 W/m 6,3 km/h (2 Bft) 95,74 %
18.09.2015 20:30 16,8 C 15,6 C 13,9 C 77 % 0 lf 1015,5 hPa 0,0 l/m 0 min 0 min 0 W/m 6,3 km/h (2 Bft) 95,74 %
18.09.2015 20:32 16,8 C 15,6 C 13,9 C 77 % 0 lf 1015,5 hPa 0,0 l/m 0 min 0 min 0 W/m 6,3 km/h (2 Bft) 93,62 %
18.09.2015 20:34 16,7 C 15,6 C 13,9 C 77 % 0 lf 1015,5 hPa 0,0 l/m 0 min 0 min 0 W/m 6,3 km/h (2 Bft) 95,74 %
18.09.2015 20:36 16,7 C 15,6 C 13,9 C 77 % 0 lf 1015,5 hPa 0,0 l/m 0 min 0 min 0 W/m 6,3 km/h (2 Bft) 97,87 %
18.09.2015 20:38 16,7 C 15,6 C 13,9 C 77 % 0 lf 1015,5 hPa 0,0 l/m 0 min 0 min 0 W/m 4,2 km/h (1 Bft) 97,83 %
18.09.2015 20:40 16,6 C 15,6 C 13,9 C 77 % 0 lf 1015,6 hPa 0,0 l/m 0 min 0 min 0 W/m 6,3 km/h (2 Bft) 100,00 %
18.09.2015 20:42 16,6 C 15,6 C 13,9 C 77 % 0 lf 1015,5 hPa 0,0 l/m 0 min 0 min 0 W/m 6,3 km/h (2 Bft) 93,62 %
18.09.2015 20:44 16,6 C 15,6 C 13,9 C 78 % 0 lf 1015,6 hPa 0,0 l/m 0 min 0 min 0 W/m 6,3 km/h (2 Bft) 95,74 %
18.09.2015 20:46 16,6 C 15,6 C 13,9 C 78 % 0 lf 1015,5 hPa 0,0 l/m 0 min 0 min 0 W/m 6,3 km/h (2 Bft) 95,74 %
18.09.2015 20:48 16,5 C 15,6 C 13,9 C 78 % 0 lf 1015,5 hPa 0,0 l/m 0 min 0 min 0 W/m 8,4 km/h (2 Bft) 97,87 %
18.09.2015 20:50 16,4 C 15,6 C 13,9 C 78 % 0 lf 1015,5 hPa 0,0 l/m 0 min 0 min 0 W/m 4,2 km/h (1 Bft) 93,48 %
18.09.2015 20:52 16,4 C 15,6 C 13,9 C 78 % 0 lf 1015,6 hPa 0,0 l/m 0 min 0 min 0 W/m 4,2 km/h (1 Bft) 97,87 %
18.09.2015 20:54 16,4 C 15,6 C 13,9 C 78 % 0 lf 1015,6 hPa 0,0 l/m 0 min 0 min 0 W/m 6,3 km/h (2 Bft) 93,62 %
18.09.2015 20:56 16,4 C 15,6 C 13,9 C 79 % 0 lf 1015,6 hPa 0,0 l/m 0 min 0 min 0 W/m 6,3 km/h (2 Bft) 97,87 %
18.09.2015 20:58 16,3 C 15,6 C 13,9 C 79 % 0 lf 1015,6 hPa 0,0 l/m 0 min 0 min 0 W/m 4,2 km/h (1 Bft) 100,00 %
18.09.2015 21:00 16,3 C 15,0 C 13,3 C 79 % 0 lf 1015,6 hPa 0,0 l/m 0 min 0 min 0 W/m 8,4 km/h (2 Bft) 97,87 %
18.09.2015 21:02 16,3 C 15,0 C 13,3 C 79 % 0 lf 1015,6 hPa 0,0 l/m 0 min 0 min 0 W/m 8,4 km/h (2 Bft) 100,00 %
18.09.2015 21:04 16,2 C 15,0 C 13,3 C 79 % 0 lf 1015,6 hPa 0,0 l/m 0 min 0 min 0 W/m 8,4 km/h (2 Bft) 97,87 %
18.09.2015 21:06 16,2 C 15,0 C 13,3 C 79 % 0 lf 1015,6 hPa 0,0 l/m 0 min 0 min 0 W/m 8,4 km/h (2 Bft) 100,00 %
18.09.2015 21:08 16,2 C 15,0 C 13,3 C 79 % 0 lf 1015,6 hPa 0,0 l/m 0 min 0 min 0 W/m 10,5 km/h (2 Bft) 100,00 %
18.09.2015 21:10 16,1 C 15,6 C 13,3 C 79 % 0 lf 1015,6 hPa 0,0 l/m 0 min 0 min 0 W/m 10,5 km/h (2 Bft) 95,74 %
18.09.2015 21:12 16,1 C 15,6 C 13,3 C 79 % 0 lf 1015,7 hPa 0,0 l/m 0 min 0 min 0 W/m 16,7 km/h (3 Bft) 97,87 %
18.09.2015 21:14 16,1 C 15,6 C 13,3 C 80 % 0 lf 1015,6 hPa 0,0 l/m 0 min 0 min 0 W/m 10,5 km/h (2 Bft) 97,83 %
18.09.2015 21:16 16,0 C 15,6 C 13,3 C 80 % 0 lf 1015,7 hPa 0,0 l/m 0 min 0 min 0 W/m 8,4 km/h (2 Bft) 97,87 %
18.09.2015 21:18 15,9 C 15,6 C 13,3 C 80 % 0 lf 1015,7 hPa 0,0 l/m 0 min 0 min 0 W/m 10,5 km/h (2 Bft) 97,87 %
18.09.2015 21:20 15,9 C 15,6 C 13,3 C 80 % 0 lf 1015,7 hPa 0,0 l/m 0 min 0 min 0 W/m 10,5 km/h (2 Bft) 97,87 %
18.09.2015 21:22 15,9 C 15,6 C 13,3 C 80 % 0 lf 1015,7 hPa 0,0 l/m 0 min 0 min 0 W/m 8,4 km/h (2 Bft) 95,74 %
18.09.2015 21:24 15,8 C 15,6 C 13,3 C 80 % 0 lf 1015,7 hPa 0,0 l/m 0 min 0 min 0 W/m 14,6 km/h (3 Bft) 97,83 %
18.09.2015 21:26 15,8 C 15,6 C 13,9 C 80 % 0 lf 1015,7 hPa 0,0 l/m 0 min 0 min 0 W/m 14,6 km/h (3 Bft) 97,87 %
18.09.2015 21:28 15,8 C 15,6 C 13,9 C 80 % 0 lf 1015,7 hPa 0,0 l/m 0 min 0 min 0 W/m 10,5 km/h (2 Bft) 97,87 %
18.09.2015 21:30 15,7 C 15,6 C 13,9 C 80 % 0 lf 1015,7 hPa 0,0 l/m 0 min 0 min 0 W/m 16,7 km/h (3 Bft) 91,49 %
18.09.2015 21:32 15,7 C 15,6 C 13,9 C 80 % 0 lf 1015,7 hPa 0,0 l/m 0 min 0 min 0 W/m 10,5 km/h (2 Bft) 97,87 %
18.09.2015 21:34 15,7 C 15,6 C 13,9 C 80 % 0 lf 1015,7 hPa 0,0 l/m 0 min 0 min 0 W/m 10,5 km/h (2 Bft) 97,87 %
18.09.2015 21:36 15,7 C 15,6 C 13,9 C 80 % 0 lf 1015,8 hPa 0,0 l/m 0 min 0 min 0 W/m 12,6 km/h (3 Bft) 97,83 %
18.09.2015 21:38 15,7 C 15,6 C 13,9 C 80 % 0 lf 1015,8 hPa 0,0 l/m 0 min 0 min 0 W/m 10,5 km/h (2 Bft) 97,87 %
18.09.2015 21:40 15,6 C 15,6 C 13,9 C 80 % 0 lf 1015,8 hPa 0,0 l/m 0 min 0 min 0 W/m 8,4 km/h (2 Bft) 97,87 %
18.09.2015 21:42 15,6 C 15,0 C 13,3 C 80 % 0 lf 1015,7 hPa 0,0 l/m 0 min 0 min 0 W/m 6,3 km/h (2 Bft) 95,74 %
18.09.2015 21:44 15,6 C 15,0 C 13,3 C 80 % 0 lf 1015,7 hPa 0,0 l/m 0 min 0 min 0 W/m 10,5 km/h (2 Bft) 97,87 %
18.09.2015 21:46 15,6 C 15,0 C 13,3 C 80 % 0 lf 1015,8 hPa 0,0 l/m 0 min 0 min 0 W/m 8,4 km/h (2 Bft) 95,74 %
18.09.2015 21:48 15,6 C 15,0 C 13,3 C 80 % 0 lf 1015,8 hPa 0,0 l/m 0 min 0 min 0 W/m 8,4 km/h (2 Bft) 97,83 %
18.09.2015 21:50 15,6 C 15,0 C 13,3 C 80 % 0 lf 1015,8 hPa 0,0 l/m 0 min 0 min 0 W/m 10,5 km/h (2 Bft) 95,74 %
18.09.2015 21:52 15,6 C 15,0 C 13,3 C 80 % 0 lf 1015,7 hPa 0,0 l/m 0 min 0 min 0 W/m 10,5 km/h (2 Bft) 97,87 %
18.09.2015 21:54 15,5 C 15,0 C 13,3 C 80 % 0 lf 1015,7 hPa 0,0 l/m 0 min 0 min 0 W/m 10,5 km/h (2 Bft) 97,87 %
18.09.2015 21:56 15,5 C 15,0 C 13,3 C 80 % 0 lf 1015,7 hPa 0,0 l/m 0 min 0 min 0 W/m 10,5 km/h (2 Bft) 93,62 %
18.09.2015 21:58 15,4 C 15,0 C 12,8 C 80 % 0 lf 1015,8 hPa 0,0 l/m 0 min 0 min 0 W/m 8,4 km/h (2 Bft) 97,87 %
18.09.2015 22:00 15,4 C 15,0 C 12,8 C 80 % 0 lf 1015,8 hPa 0,0 l/m 0 min 0 min 0 W/m 6,3 km/h (2 Bft) 97,83 %
18.09.2015 22:02 15,4 C 15,0 C 12,8 C 80 % 0 lf 1015,8 hPa 0,0 l/m 0 min 0 min 0 W/m 8,4 km/h (2 Bft) 97,87 %
18.09.2015 22:04 15,4 C 14,4 C 12,8 C 80 % 0 lf 1015,8 hPa 0,0 l/m 0 min 0 min 0 W/m 6,3 km/h (2 Bft) 100,00 %
18.09.2015 22:06 15,4 C 14,4 C 12,8 C 80 % 0 lf 1015,8 hPa 0,0 l/m 0 min 0 min 0 W/m 6,3 km/h (2 Bft) 97,87 %
18.09.2015 22:08 15,3 C 14,4 C 12,8 C 80 % 0 lf 1015,8 hPa 0,0 l/m 0 min 0 min 0 W/m 10,5 km/h (2 Bft) 100,00 %
18.09.2015 22:10 15,3 C 14,4 C 12,8 C 80 % 0 lf 1015,8 hPa 0,0 l/m 0 min 0 min 0 W/m 10,5 km/h (2 Bft) 97,87 %
18.09.2015 22:12 15,3 C 14,4 C 12,8 C 80 % 0 lf 1015,8 hPa 0,0 l/m 0 min 0 min 0 W/m 10,5 km/h (2 Bft) 100,00 %
18.09.2015 22:14 15,3 C 14,4 C 12,8 C 81 % 0 lf 1015,8 hPa 0,0 l/m 0 min 0 min 0 W/m 10,5 km/h (2 Bft) 97,87 %
18.09.2015 22:16 15,2 C 14,4 C 12,8 C 81 % 0 lf 1015,8 hPa 0,0 l/m 0 min 0 min 0 W/m 14,6 km/h (3 Bft) 97,87 %
18.09.2015 22:18 15,2 C 14,4 C 12,8 C 81 % 0 lf 1015,7 hPa 0,0 l/m 0 min 0 min 0 W/m 10,5 km/h (2 Bft) 97,87 %
18.09.2015 22:20 15,2 C 14,4 C 12,8 C 81 % 0 lf 1015,7 hPa 0,0 l/m 0 min 0 min 0 W/m 10,5 km/h (2 Bft) 95,74 %
18.09.2015 22:22 15,1 C 14,4 C 12,8 C 81 % 0 lf 1015,8 hPa 0,0 l/m 0 min 0 min 0 W/m 12,6 km/h (3 Bft) 95,74 %
18.09.2015 22:24 15,1 C 14,4 C 12,8 C 81 % 0 lf 1015,8 hPa 0,0 l/m 0 min 0 min 0 W/m 12,6 km/h (3 Bft) 97,83 %
18.09.2015 22:26 15,1 C 14,4 C 12,8 C 81 % 0 lf 1015,8 hPa 0,0 l/m 0 min 0 min 0 W/m 8,4 km/h (2 Bft) 95,74 %
18.09.2015 22:28 15,0 C 14,4 C 12,8 C 81 % 0 lf 1015,8 hPa 0,0 l/m 0 min 0 min 0 W/m 8,4 km/h (2 Bft) 97,87 %
18.09.2015 22:30 15,0 C 14,4 C 12,8 C 81 % 0 lf 1015,8 hPa 0,0 l/m 0 min 0 min 0 W/m 8,4 km/h (2 Bft) 97,87 %
18.09.2015 22:32 14,9 C 14,4 C 12,8 C 82 % 0 lf 1015,8 hPa 0,0 l/m 0 min 0 min 0 W/m 6,3 km/h (2 Bft) 95,74 %
18.09.2015 22:34 14,9 C 14,4 C 12,2 C 82 % 0 lf 1015,8 hPa 0,0 l/m 0 min 0 min 0 W/m 8,4 km/h (2 Bft) 91,49 %
18.09.2015 22:36 14,9 C 14,4 C 12,2 C 82 % 0 lf 1015,9 hPa 0,0 l/m 0 min 0 min 0 W/m 8,4 km/h (2 Bft) 95,65 %
18.09.2015 22:38 14,9 C 14,4 C 12,2 C 82 % 0 lf 1015,9 hPa 0,0 l/m 0 min 0 min 0 W/m 6,3 km/h (2 Bft) 93,62 %
18.09.2015 22:40 14,8 C 14,4 C 12,2 C 82 % 0 lf 1015,9 hPa 0,0 l/m 0 min 0 min 0 W/m 10,5 km/h (2 Bft) 93,62 %
18.09.2015 22:42 14,8 C 14,4 C 12,2 C 82 % 0 lf 1015,9 hPa 0,0 l/m 0 min 0 min 0 W/m 10,5 km/h (2 Bft) 93,62 %
18.09.2015 22:44 14,8 C 14,4 C 12,8 C 82 % 0 lf 1015,9 hPa 0,0 l/m 0 min 0 min 0 W/m 10,5 km/h (2 Bft) 89,36 %
18.09.2015 22:46 14,8 C 14,4 C 12,8 C 82 % 0 lf 1015,9 hPa 0,0 l/m 0 min 0 min 0 W/m 14,6 km/h (3 Bft) 93,48 %
18.09.2015 22:48 14,7 C 14,4 C 12,8 C 82 % 0 lf 1015,9 hPa 0,0 l/m 0 min 0 min 0 W/m 10,5 km/h (2 Bft) 93,62 %
18.09.2015 22:50 14,7 C 14,4 C 12,8 C 82 % 0 lf 1015,9 hPa 0,0 l/m 0 min 0 min 0 W/m 14,6 km/h (3 Bft) 95,74 %
18.09.2015 22:52 14,7 C 14,4 C 12,8 C 82 % 0 lf 1016,0 hPa 0,0 l/m 0 min 0 min 0 W/m 10,5 km/h (2 Bft) 93,62 %
18.09.2015 22:54 14,7 C 14,4 C 12,8 C 82 % 0 lf 1016,0 hPa 0,0 l/m 0 min 0 min 0 W/m 6,3 km/h (2 Bft) 93,62 %
18.09.2015 22:56 14,7 C 14,4 C 12,8 C 83 % 0 lf 1016,0 hPa 0,0 l/m 0 min 0 min 0 W/m 6,3 km/h (2 Bft) 95,74 %
18.09.2015 22:58 14,6 C 14,4 C 12,8 C 83 % 0 lf 1016,0 hPa 0,0 l/m 0 min 0 min 0 W/m 8,4 km/h (2 Bft) 95,65 %
18.09.2015 23:00 14,6 C 14,4 C 12,8 C 83 % 0 lf 1016,0 hPa 0,0 l/m 0 min 0 min 0 W/m 6,3 km/h (2 Bft) 95,74 %
18.09.2015 23:02 14,6 C 14,4 C 12,8 C 83 % 0 lf 1016,0 hPa 0,0 l/m 0 min 0 min 0 W/m 8,4 km/h (2 Bft) 93,62 %
18.09.2015 23:04 14,6 C 14,4 C 12,8 C 83 % 0 lf 1016,0 hPa 0,0 l/m 0 min 0 min 0 W/m 6,3 km/h (2 Bft) 95,74 %
18.09.2015 23:06 14,6 C 14,4 C 12,8 C 83 % 0 lf 1016,1 hPa 0,0 l/m 0 min 0 min 0 W/m 8,4 km/h (2 Bft) 95,74 %
18.09.2015 23:08 14,6 C 14,4 C 12,8 C 83 % 0 lf 1016,1 hPa 0,0 l/m 0 min 0 min 0 W/m 10,5 km/h (2 Bft) 95,74 %
18.09.2015 23:10 14,6 C 14,4 C 12,8 C 83 % 0 lf 1016,1 hPa 0,0 l/m 0 min 0 min 0 W/m 8,4 km/h (2 Bft) 93,48 %
18.09.2015 23:12 14,6 C 14,4 C 12,8 C 83 % 0 lf 1016,1 hPa 0,0 l/m 0 min 0 min 0 W/m 8,4 km/h (2 Bft) 91,49 %
18.09.2015 23:14 14,6 C 14,4 C 12,8 C 84 % 0 lf 1016,1 hPa 0,0 l/m 0 min 0 min 0 W/m 6,3 km/h (2 Bft) 93,62 %
18.09.2015 23:16 14,6 C 14,4 C 12,8 C 84 % 0 lf 1016,2 hPa 0,0 l/m 0 min 0 min 0 W/m 8,4 km/h (2 Bft) 93,62 %
18.09.2015 23:18 14,6 C 14,4 C 12,8 C 84 % 0 lf 1016,2 hPa 0,0 l/m 0 min 0 min 0 W/m 6,3 km/h (2 Bft) 93,62 %
18.09.2015 23:20 14,6 C 14,4 C 12,8 C 84 % 0 lf 1016,2 hPa 0,0 l/m 0 min 0 min 0 W/m 12,6 km/h (3 Bft) 95,74 %
18.09.2015 23:22 14,6 C 14,4 C 12,8 C 84 % 0 lf 1016,2 hPa 0,0 l/m 0 min 0 min 0 W/m 10,5 km/h (2 Bft) 95,65 %
18.09.2015 23:24 14,6 C 14,4 C 13,3 C 84 % 0 lf 1016,2 hPa 0,0 l/m 0 min 0 min 0 W/m 8,4 km/h (2 Bft) 95,74 %
18.09.2015 23:26 14,6 C 14,4 C 13,3 C 84 % 0 lf 1016,2 hPa 0,0 l/m 0 min 0 min 0 W/m 12,6 km/h (3 Bft) 91,49 %
18.09.2015 23:28 14,6 C 14,4 C 13,3 C 84 % 0 lf 1016,2 hPa 0,0 l/m 0 min 0 min 0 W/m 8,4 km/h (2 Bft) 95,74 %
18.09.2015 23:30 14,6 C 14,4 C 13,3 C 84 % 0 lf 1016,2 hPa 0,0 l/m 0 min 0 min 0 W/m 8,4 km/h (2 Bft) 95,74 %
18.09.2015 23:32 14,6 C 14,4 C 13,3 C 84 % 0 lf 1016,2 hPa 0,0 l/m 0 min 0 min 0 W/m 10,5 km/h (2 Bft) 93,62 %
18.09.2015 23:34 14,6 C 14,4 C 13,3 C 84 % 0 lf 1016,2 hPa 0,0 l/m 0 min 0 min 0 W/m 8,4 km/h (2 Bft) 97,83 %
18.09.2015 23:36 14,6 C 14,4 C 13,3 C 84 % 0 lf 1016,3 hPa 0,0 l/m 0 min 0 min 0 W/m 8,4 km/h (2 Bft) 95,74 %
18.09.2015 23:38 14,6 C 14,4 C 13,3 C 84 % 0 lf 1016,2 hPa 0,0 l/m 0 min 0 min 0 W/m 8,4 km/h (2 Bft) 97,87 %
18.09.2015 23:40 14,6 C 14,4 C 13,3 C 84 % 0 lf 1016,3 hPa 0,0 l/m 0 min 0 min 0 W/m 12,6 km/h (3 Bft) 95,74 %
18.09.2015 23:42 14,6 C 14,4 C 13,3 C 84 % 0 lf 1016,3 hPa 0,0 l/m 0 min 0 min 0 W/m 8,4 km/h (2 Bft) 93,62 %
18.09.2015 23:44 14,6 C 14,4 C 13,3 C 84 % 0 lf 1016,3 hPa 0,0 l/m 0 min 0 min 0 W/m 12,6 km/h (3 Bft) 100,00 %
18.09.2015 23:46 14,6 C 14,4 C 13,3 C 84 % 0 lf 1016,3 hPa 0,0 l/m 0 min 0 min 0 W/m 8,4 km/h (2 Bft) 100,00 %
18.09.2015 23:48 14,6 C 14,4 C 13,3 C 85 % 0 lf 1016,4 hPa 0,0 l/m 0 min 0 min 0 W/m 6,3 km/h (2 Bft) 100,00 %
18.09.2015 23:50 14,6 C 15,0 C 13,3 C 85 % 0 lf 1016,4 hPa 0,0 l/m 0 min 0 min 0 W/m 12,6 km/h (3 Bft) 100,00 %
18.09.2015 23:52 14,6 C 14,4 C 13,3 C 85 % 0 lf 1016,4 hPa 0,0 l/m 0 min 0 min 0 W/m 10,5 km/h (2 Bft) 97,87 %
18.09.2015 23:54 14,6 C 14,4 C 13,3 C 85 % 0 lf 1016,4 hPa 0,0 l/m 0 min 0 min 0 W/m 8,4 km/h (2 Bft) 100,00 %
18.09.2015 23:56 14,6 C 14,4 C 13,3 C 85 % 0 lf 1016,4 hPa 0,0 l/m 0 min 0 min 0 W/m 10,5 km/h (2 Bft) 100,00 %
18.09.2015 23:58 14,6 C 14,4 C 13,3 C 85 % 0 lf 1016,4 hPa 0,0 l/m 0 min 0 min 0 W/m 8,4 km/h (2 Bft) 97,87 %
_ Min-Zeit 05:46 05:26 05:38 14:18 09:16 00:00 - - - - 05:32 04:02
Minimum _ 10,4 C 10,0 C 8,3 C 62 % 0 lf 1009,5 hPa - - - - 2,1 km/h (1 Bft) 80,00 %
_ Max-Zeit 14:46 11:58 11:58 06:52 00:00 23:48 03:54 07:28 03:52 13:12 13:48 00:02
Maximum _ 20,2 C 29,4 C 23,3 C 98 % 15 lf 1016,4 hPa 0,2 l/m 2 min 2 min 857 W/m 39,7 km/h
SW (6 Bft)
100,00 %
Durchschnitt _ 15,0 C 16,6 C 13,8 C 83 % 6 lf 1013,4 hPa #0,4 l/m #6:58 h #18 min. 294 W/m 14,0 km/h (3 Bft) 96,48 %
© 2015 W. Hausmann